Fire Safety Plan Review

Plan Review Queue

Order Project Name Permit Type AiM Number Project Manager Fast Track Date Received Estimated Completion Date FSO Reviewer Tracking # Status
1 Campus Center Phase 1 Fire Alarm Fire Alarm BOR-PPV-30-1801 John Duconge No 02/14/2020 02/28/2020 2020-PR-038 In Plan Review Queue
2 PTS Office Relocation Construction 0049-2020 Brad Morris No 02/14/2020 02/28/2020 Jake LeJeune 2020-PR-039 In Plan Review Queue
3 Campus Center Phase 1-Exhibition Hall and Cafe Fire Suppression BOR-PPV-30-1801 John Duconge No 02/17/2020 03/02/2020 2020-PR-040 In Plan Review Queue
4 Lab Ventilation Controls Upgrade-Ford ES&T Construction C0378-2018 Kynthia Gaines No 02/21/2020 03/06/2020 2020-PR-043 In Plan Review Queue

Pending Plan Reviews

Project Name AiM Number Project Manager Fast Track Estimated Completion Date FSO Reviewer Tracking # Status Date Status Changed to Pending
Georgia Tech Campus Center C0149-2017 John Duconge No 01/17/2019 Jake LeJeune 2019-PR-002 Pending 01/15/2019
Georgia Power/Georgia Tech Microgrid No 09/04/2019 Larry Labbe 2019-PR-277 Pending 09/18/2019
Bill Moore Student Success Center Elevator Renovations 0072-2020 Bill Oswell No 01/21/2020 Jerry Marrison 2019-PR-353 Pending 01/09/2020

Approved Plan Reviews

Project Name AiM Number Project Manager Fast Track Actual Completion Date Tracking #
CNES-Room 128-Adam Steinberg Research Laboratory 0078--2016 Greg Spiro No 02/20/2020 2019-PR-360
There Gastropub on 5th Tenant Upfit 0270-2019 Daniel Powell No 02/19/2020 2020-PR-036
GTRI CCRF Building B10 Renovation 0153-2020 Nic Palfrey No 02/19/2020 2020-PR-041
Microbiome Research, Brown/Diggle Lab Fit-Up 0336-2019 Ngugi Mathu No 02/18/2020 2020-PR-028
Ryan Sherman Lab Improvements-Structures 0047-2020 Bill Oswell No 02/18/2020 2020-PR-032
Crosland Tower/Price Gilbert Library Renewal Dumpster Location 2014-2016 Lindsey Cottingham No 02/18/2020 2020-PR-037
Tianye Niu Lab Renovation-Boggs 0027-2020 Bill Oswell No 02/14/2020 2020-PR-013
Dalney Building-PV Installation 0370-2017 Brad Morris No 02/13/2020 2020-PR-031
Campus Center-Pavilion BOR-PPV-30-1801 John Duconge No 02/04/2020 2020-PR-015
Woodshop Dust Collector Installation-Fire Alarm 0452-2019 Tony Gonzalez No 02/04/2020 2020-PR-030
Instructional Space Howey Lecture Hall C0096-2018 Nic Palfrey No 02/03/2020 2020-PR-019
W8R System-Highland Bakery No 01/30/2020 2020-PR-029
10th Street Housing ADA Improvements 0217-2018 Daniel Powell No 01/28/2020 2019-PR-363
Georgia Tech Instructional Center Roof Replacement 0488-2019 Bill Oswell No 01/27/2020 2020-PR-023
Woodshop/Dust Collector-Fire Sprinkler 0452-2019 Tony Gonzalez No 01/25/2020 2020-PR-024
ESM Roof Top Unit Replacement 0130-20 Federico Del Risco No 01/22/2020 2020-PR-020
College of Business-Undergrad Lab Renovation-Fire Alarm 0416-2018 Jennifer Disotell Yes 01/22/2020 2020-PR-021
Woodshop Dust Collector Installation-Crane Plan 0452-2019 Tony Gonzalez Yes 01/16/2020 2020-PR-018
Jesse Mason-Chris Lai Lab 0041-2020 Bill Oswell No 01/13/2020 2019-PR-357
UA Whitaker-Lab Ventilation Controls Upgrade C0378-2018 Kynthia Gaines No 01/10/2020 2019-PR-356
10th Street Housing ADA Improvements 0443-2019 Daniel Powell No 01/10/2020 2020-PR-009
Generator and ATS Replacement 0404-2019 Spencer Sheffield No 01/08/2020 2020-PR-012
GT Price Gilbert-Crosland Tower Renewal-Fire Alarm 2014-0146 Lindsey Cottingham No 01/07/2020 2019-PR-347
Campus Center-Phase 1 Cafe BOR-PPV-30-1801 Nic Palfrey No 01/07/2020 2019-PR-355
Brock Practice Facility Fire Alarm Renovation No 01/07/2020 2020-PR-007
Campus Recreation Center Chiller Replacement 0474-2019 Daniel Powell No 01/07/2020 2020-PR-008
Campus Door Access Control Upgrade-MRDC 0287-2019 Carla Barbour No 01/07/2020 2020-PR-011
Howey Lecture Hall Renovation-Wing L 1-4 C0096-2018 Nic Palfrey No 12/30/2019 2019-PR-354
ULC Boiler Replacement 0217-2018 Daniel Powell No 12/30/2019 2019-PR-361
MaRC Reroofing and Sealant Replacement-REVISION 0054-2019 Ngugi Mathu No 12/19/2019 2019-PR-333
Fourth Floor Open Office Expansion-GPB 0407-2019 Jennifer Disotell No 12/18/2019 2019-PR-349
Holland Plant-HVAC Replacement 0901-2020 Federico Del Risco No 12/18/2019 2019-PR-351
Mason FY19 Painting-Common Areas-CLOSURES 0356-2019 Fenella Bryant No 12/13/2019 2019-PR-350
Alumni House Replacement-Phase 2 0074-2020 Mark Wood No 12/05/2019 2019-PR-346
Armstrong Residence Hall Fire Alarm Replacement 0237-2019 Spencer Sheffield No 12/03/2019 2019-PR-343
Hefner Residence Hall Fire Alarm Replacement 0252-2019 Spencer Sheffield No 12/03/2019 2019-PR-344
GT Howey Lecture Hall Re-roof Renovation 0416-2019 Bill Oswell No 12/03/2019 2019-PR-345
Petit-Core Lab Expansion 2334 & 3327 Sprinkler 0012-2019 Elvia Lam No 11/27/2019 2019-PR-342
GLC 328 Analog to Digital 0345-2019 Amber Chellis-Omedo No 11/26/2019 2019-PR-339
Petit-Core Lab Expansion 2334 & 3327 0012-2019 Elvia Lam No 11/26/2019 2019-PR-340
Bobby Dodd Stadium Lighting 0218-2019 Mark Wood No 11/21/2019 2019-PR-336
Campus Center-Exhibition Hall Fire Suppression BOR-PPV-30-1801 John Duconge No 11/20/2019 2019-PR-332
Holland Plant-Gender Neutral Restrooms 0370-2019 Amber Chellis-Omedo No 11/20/2019 2019-PR-338
MRR FY16 811 Marietta Street Geothermal HVAC System Replacement 0035-2016 Cristina Fannin No 11/18/2019 2019-PR-335
Van Leer Freight Elevator Renovation 0361-2018 Bill Oswell No 11/05/2019 2019-PR-330
Ford ES&T Lab Ventilation Controls Upgrades(Level 1) C0378-2018 Kynthia Gaines No 10/31/2019 2019-PR-329
Price Gilbert Crosland Library-Sideways Cafe 0368-2019 Daniel Powell No 10/29/2019 2019-PR-324
Saha Lab-Fire Alarm 0374-2019 Bill Oswell No 10/29/2019 2019-PR-325
Smith 300 Range Suppression & Fire-Alarm Tie In 19-217006 John Witt No 10/28/2019 2019-PR-327
Price Gilbert Library Renewal- Grass Pave Lindsey Cottingham No 10/25/2019 2019-PR-323
Renovation Dr. Ho's Computational Lab 0398-2019 Maria Ceballos No 10/25/2019 2019-PR-326
GTRI 1663 CCRF Bldg. 5-Closed Area Expansion 0313-2019 Mitchell Shelton No 10/23/2019 2019-PR-320
GTRI 1741 CCRF B10 Renovation 0408-2019 Jennifer Disotell No 10/23/2019 2019-PR-321
North Ave Apartments South Re-roof 0227-2019 Spencer Sheffield No 10/23/2019 2019-PR-322
Saha Lab-MARC 0374-2019 Bill Oswell No 10/21/2019 2019-PR-313
Daniel Lab Temp Control Rooms 0264-2019 Mark Wood No 10/21/2019 2019-PR-319
Dr. K Feigh Research Labs 0084-2020 Maria Ceballos No 10/18/2019 2019-PR-312
Ford ES&T Lab Ventilation Controls Upgrades(Level L2) C0378-2018 Kynthia Gaines No 10/18/2019 2019-PR-316
Howey Physics of Living Systems Interaction Area 0112-2019 Ngugi Mathu No 10/18/2019 2019-PR-317
Saha Lab-Fire Suppression 0374-2019 Bill Oswell No 10/18/2019 2019-PR-318
Petit-Core Lab Expansion 2334 & 3327 0012-2019 Elvia Lam No 10/16/2019 2019-PR-311
Woodshop/Dust Collection System 0452-2019 Tony Gonzalez No 10/15/2019 2019-PR-314
Okeefe Building-Upgrade HVAC System and Controls 0076-2020 Mitchell Shelton No 10/11/2019 2019-PR-309
Ferst Center for the Arts-Stage Floor Replacement 0417-2019 Cristina Fannin No 10/08/2019 2019-PR-307
Campus Center-Phase 1 Crane Plan-C BOR-PPV-30-1801 John Duconge No 10/01/2019 2019-PR-305
Microbiome Research, Brown/Diggle Lab Fit-Up 0336-2019 Ngugi Mathu No 09/23/2019 2019-PR-298
GTRI 1663 CCRF Bldg. 5-Closed Area Expansion 0313-2019 Mitchell Shelton No 09/23/2019 2019-PR-299
Howey Physics of Living Systems Research Area 0112-2019 Ngugi Mathu No 09/19/2019 2019-PR-297
Kendeda Building-AS BUILTS Fire Alarm 0418-2017 John Duconge Yes 09/19/2019 2019-PR-301
MS&E Stainless Tubing and Ventilation Connections 111-2018 Tony Gonzalez No 09/19/2019 2019-PR-302
Kendeda Building-AS BUILTS Fire Suppression 0418-2017 John Duconge No 09/18/2019 2019-PR-294
Beringause Demolition 0418-2019 Chris Sanders No 09/18/2019 2019-PR-300
Boggs Radiochemistry Lab 3-11 0130-2019 Maria Ceballos No 09/16/2019 2019-PR-296
Campus Center-Phase 1 CAFE BOR-PPV-30-1801 John Duconge No 09/13/2019 2019-PR-254
Campus Center-Phase 1 PAVILION BOR-PPV-30-1801 John Duconge No 09/13/2019 2019-PR-255
Hopkins Residence Hall-Crane Location-Third Set Up 0298-2019 Spencer Sheffield No 09/13/2019 2019-PR-293
Engineering Center-TNR BioFab Facility 0023-2019 Brian Clarke No 09/11/2019 2019-PR-290
Ford ES&T Lab Ventilation Controls Upgrades(Level 1) C0378-2018 Kynthia Gaines No 09/10/2019 2019-PR-289
Campus Center-Phase 1 EXHIBITION HALL BOR-PPV-30-1801 John Duconge No 09/04/2019 2019-PR-256
GATV SHES Office Renovations 1922.00 No 09/03/2019 2019-PR-285
Hopkins Residence Hall-Re-roof 0233-2019 Spencer Sheffield No 08/30/2019 2019-PR-283
Beringause Demolition 0418-2019 Chris Sanders No 08/30/2019 2019-PR-284
Center Street Apartment Re-roof 0124-2019 Spencer Sheffield No 08/30/2019 2019-PR-287
There Gastropub on 5th Tenant Upfit 0270-2019 Daniel Powell No 08/28/2019 2019-PR-280
Bunger-Henry Battery Lab 433C 0228-2019 Mark Wood No 08/28/2019 2019-PR-282
Hopkins Residence Hall-Crane Location-Second Set Up 0298-2019 Spencer Sheffield No 08/28/2019 2019-PR-286
Campus Center-Phase 1 Crane Plan-B BOR-PPV-30-1801 John Duconge No 08/26/2019 2019-PR-281
There Gastropub on 5thTenant Upfit 0270-2019 Daniel Powell No 08/23/2019 2019-PR-278
Campus Center-Phase 1 Crane Plan BOR-PPV-30-1801 John Duconge No 08/23/2019 2019-PR-279
Okeefe ROTC Interiors AS-BUILTS 0421-2018 Mitchell Shelton No 08/21/2019 2019-PR-274
Alpha Sigma Pi No 08/20/2019 2019-PR-273
CAS Office 283L Door Replacement 0119-2019 Maria Ceballos No 08/16/2019 2019-PR-270
Bunger-Henry Battery Lab 433C 0228-2019 Mark Wood No 08/16/2019 2019-PR-271
Lawn North of CULC 0068-2018 Jerry Young No 08/15/2019 2019-PR-268
MRR FY16 811 Marietta Street Geothermal HVAC System Rplcmnt-Phase 5 0035-2016 Tony Gonzalez No 08/12/2019 2019-PR-265
MRR FY16 811 Marietta Street Geothermal HVAC System Rplcmnt-Phase 4 0035-2016 Tony Gonzalez No 08/12/2019 2019-PR-266
Peralta-Yahya Lab Fit-Up 0495-2019 Ngugi Mathu No 08/09/2019 2019-PR-252
Kappa Alpha Theta Sorority-AS BUILTS No 08/09/2019 2019-PR-267
Boggs 3-11 Radiochemistry Lab 0130-2019 Cristina Fannin No 08/06/2019 2019-PR-260
Boggs 3-13 Server Room Fit-Up 0453-2019 Cristina Fannin No 08/06/2019 2019-PR-263
Dalney Building-As-Builts and CSR 0370-2017 Brad Morris No 08/02/2019 2019-PR-253
Cyber Security Labs 3201/3203/3353 0003-2019 Mark Wood No 08/01/2019 2019-PR-246
Dr. Vamvoudakis Flight Lab 0004-2019 Mitchell Shelton No 08/01/2019 2019-PR-247
Lab Complex for T. Brown(Center for Advanced Brain Imaging) 0165-2019 Mitchell Shelton No 08/01/2019 2019-PR-248
Greenfield Street Corridor-Temporary Fire Lane 0370-2017 Brad Morris No 07/30/2019 2019-PR-243
ESM Reno of Dr. Ho's Computational Lab-Rooms 107, 205, 306 0398-2019 Maria Ceballos No 07/30/2019 2019-PR-245
GT Campus Center- Temporary Egress Modifications for Utility Work BOR-PPV-30-1801 John Duconge No 07/26/2019 2019-PR-238
Ford ES&T Lab Ventilation Controls Upgrades C0378-2018 Kynthia Gaines No 07/26/2019 2019-PR-242
Vesda Reconfiguration-EBB Jennifer Disotell No 07/25/2019 2019-PR-241
Student Success Center-2nd Floor Office/Meeting Room Build Out 0367-2019 Mark Wood No 07/23/2019 2019-PR-232
NEETRAC Phase IV Expansion Building AS-BUILT 0410-2017 Kynthia Gaines No 07/22/2019 2019-PR-226
Student Success Center-2nd Floor Office/Meeting Room Build Out 0367-2019 Mark Wood No 07/22/2019 2019-PR-231
School of Architecture Library Renovation 0289-2019 Maria Ceballos No 07/22/2019 2019-PR-233
MRR FY19 Fire Alarm System Upgrades-Cherry Emerson 0336-2019 Cristina Fannin No 07/22/2019 2019-PR-234
CRC-Dumpster Locations 0077-2019 Daniel Powell No 07/22/2019 2019-PR-236
Campus Center-Phase 1 Temporary Walkway-Utilities Work BOR-PPV-30-1801 John Duconge No 07/19/2019 2019-PR-229
AHU Replacement for Lecture Halls 016 & 017 0093-2019 Mark Wood No 07/19/2019 2019-PR-230
CRB 4th Floor Lab-Additional Devices 0269-2019 No 07/17/2019 2019-PR-225
Lab Complex for T. Brown(Center for Advanced Brain Imaging) 0165-2019 Mitchell Shelton No 07/17/2019 2019-PR-227
Hopkins Residence Hall-Crane Location 0298-2019 Spencer Sheffield No 07/17/2019 2019-PR-228
Kappa Alpha Theta Sorority-Kitchen Hood Installation No 07/15/2019 2019-PR-221
Dr. Vamvoudakis Flight Lab 0004-2019 Mitchell Shelton No 07/12/2019 2019-PR-216
Campus Center-Phase 1 Crane Plan BOR-PPV-30-1801 John Duconge No 07/10/2019 2019-PR-217
Bill Moore Student Success Center-Closet & Storage Solution 0291-2019 Elvia Lam No 07/10/2019 2019-PR-218
Hopkins Residence Hall-Dumpster Location 0298-2019 Spencer Sheffield No 07/10/2019 2019-PR-220
EcoCommons Living Building Sector C0491-2018 Jerry Young No 07/08/2019 2019-PR-212
GT IBB Main Breaker Lineup Replacement 0439-2019 Brian Clarke No 07/08/2019 2019-PR-215
Bunger-Henry Battery Lab 433C 0228-2019 Mark Wood No 07/05/2019 2019-PR-211
Howey Structural and Restroom Project 0175-2019 Nic Palfrey No 07/05/2019 2019-PR-214
Price Gilbert Library Renewal-Crane Plan 2014-0146 Lindsey Cottingham No 07/02/2019 2019-PR-213
Swann Room 320 Classroom Conversion 0261-2019 Mitchell Shelton No 07/01/2019 2019-PR-207
Impact LLC-Partial Interior Renovation 0160-2019 Daniel Powell No 06/27/2019 2019-PR-206
Montgomery Knight Dr. Chen Lab 401 0285-2019 Mitchell Shelton No 06/24/2019 2019-PR-205
Impact LLC-Partial Interior Renovation 0160-2019 Daniel Powell No 06/19/2019 2019-PR-198
Architecture East Restrooms Renovations 026, 131,132,139 0252-2018 Amber Chellis-Omedo No 06/19/2019 2019-PR-200
Correa-Baena Electronic Research Lab 0049-2019 Mitchell Shelton No 06/18/2019 2019-PR-196
Price Gilbert Library Renewal-Fire Alarm 2014-0146 Carla Barbour No 06/14/2019 2019-PR-178
North Ave North Elevator Modernization-Final Crane Pick 18-155183 John Witt No 06/14/2019 2019-PR-193
Bobby Dodd-Upper East Stands Structural Repairs 2019-0484 Lindsey Cottingham No 06/14/2019 2019-PR-194
Bill Moore Student Success Center-Closet & Storage Solution 0367-2019 Elvia Lam No 06/13/2019 2019-PR-192
NEETRAC Phase IV Expansion-Cellular Communicator 0410-2017 Kynthia Gaines No 06/10/2019 2019-PR-182
Cyber Security Labs 3201/3203/3353 0003-2019 Mark Wood No 06/10/2019 2019-PR-183
Howey Renovation-Sprinkler Infrastructure C0096-2018 Nic Palfrey No 06/10/2019 2019-PR-184
Renovation of Instructional Space-Howey Physics C0096-2018 Nic Palfrey No 06/07/2019 2019-PR-167
Price Gilbert Library Renewal Crane Plan 2014-0146 Carla Barbour No 06/06/2019 2019-PR-180
GT Campus Services Warehouse Suites 400, 500, 600 0089-2019 Daniel Powell No 06/05/2019 2019-PR-176
Price Gilbert Library Renewal-Suppression 2014-0146 Carla Barbour No 06/05/2019 2019-PR-177
Couch-Wall 207-209 0189-2019 Amber Chellis-Omedo No 06/05/2019 2019-PR-181
Cyber Security Labs 3201/3203/3353 0003-2019 Mark Wood No 06/04/2019 2019-PR-174
Air Unit Installation-Hopkins Residence Hall 0298-2019 Spencer Sheffield No 06/04/2019 2019-PR-175
ROTC Interiors-O'Keefe Fire Alarm 0459-2019 Mitchell Shelton No 06/03/2019 2019-PR-172
Campus Recreation Center Batting Cage 0500-2018 Tony Gonzalez No 05/30/2019 2019-PR-170
ROTC Sprinkler Install & Fire Alarm Upgrades-REVISION 0421-2018 Mitchell Shelton No 05/29/2019 2019-PR-169
CODA Tenant Fit-Up 5-16 East Vestibule Entries 0009-2017 Chris Sanders No 05/24/2019 2019-PR-166
Tech Tower Lawn Phase 2 0417-2018 Jerry Young No 05/17/2019 2019-PR-162
GTRI Cobb South L12/B12 0320-2016 Nic Palfrey No 05/16/2019 2019-PR-160
State Street Wall/Walk Repair Tree Removal 0106-2019 Jerry Young No 05/16/2019 2019-PR-161
Intake Center-Smithgall AS-BUILTS 2019-0101 Brad Morris No 05/15/2019 2019-PR-142
MARC Fire Shutter Motorization-Phase 1 0278-2018 Jennifer Disotell No 05/13/2019 2019-PR-156
College of Computing-Auditorium 017 Renovation 0383-2018 Jennifer Disotell No 05/13/2019 2019-PR-157
Freight Elevator Renovation-Edge Building 0135-2019 Jamie Ready No 05/10/2019 2019-PR-154
ROTC Sprinkler Install & Fire Alarm Upgrades 0459-2018 Mitchell Shelton No 05/09/2019 2019-PR-152
Whiteley Lab Fit-Up-Cherry Emerson 0347-2018 Ngugi Mathu No 05/07/2019 2019-PR-150
Ratcliff Lab-Microbiome Research 0452-2018 Ngugi Mathu No 05/03/2019 2019-PR-147
Georgia Tech Campus Center-Trailer Layout/Logistics Plans BOR-PPV-30-1801 John Duconge No 05/01/2019 2019-PR-144
Radiochemistry Computer Lab Relocation-Boggs 0130-2019 Maria Ceballos No 04/30/2019 2019-PR-138
Locker & Toilet Partition Renovation-CRC 077-2019 Daniel Powell No 04/30/2019 2019-PR-139
Quad Cafe Renovation 0089-2019 Daniel Powell No 04/30/2019 2019-PR-140
Waterproofing & Drainage Improvements-Alumni House 0342-2018 Mark Wood No 04/30/2019 2019-PR-143
Savant OIE Suite Doors 200-2019 Cristina Fannin No 04/26/2019 2019-PR-130
Domestic Water Heater Replacement-Dumpster Location 0883-2018 Spencer Sheffield No 04/25/2019 2019-PR-132
College of Computing-Auditorium 017 Renovation 0383-2018 Jennifer Disotell No 04/24/2019 2019-PR-124
GTRI Cobb South-AS BUILTS L-22 0320-2016 Nic Palfrey No 04/24/2019 2019-PR-127
GTRI Cobb South-AS BUILTS L-12 0320-2016 Nic Palfrey No 04/24/2019 2019-PR-128
MARC Fire Shutter Motorization Fire Alarm-Phase 1 0278-2018 Jennifer Disotell No 04/23/2019 2019-PR-125
Crecine-ATT Antenna Reconfiguration Crane Plan 0463-2018 Bill Lawrence No 04/23/2019 2019-PR-129
MS&E Stainless Tubing and Ventilation Connections-Lab 3271 & 3279 111-2018 Tony Gonzalez No 04/22/2019 2019-PR-122
MARC Fire Shutter Motorization-Phase 1 0278-2018 Jennifer Disotell No 04/22/2019 2019-PR-123
Campus Center-Bulletin #1 BOR-PPV-30-1801 John Duconge No 04/18/2019 2019-PR-109
Campus Safety Facility-AS BUILTS C03456-2016 Chris Sanders No 04/18/2019 2019-PR-117
Stairwell Firedoor Replacement-D.M. Smith David Tate No 04/18/2019 2019-PR-119
Carbice Lab L1305 Code Corrections-FORD ES&T 0339-2018 Jennifer Disotell No 04/17/2019 2019-PR-118
831 Marietta Street Lab Complex 0165-2019 Maria Ceballos No 04/16/2019 2019-PR-113
Howey Mechanical Unit Replacement Crane Plan 0338-2019 Nic Palfrey No 04/16/2019 2019-PR-115
North Ave Dining OH Sanitary Pipe Replacement-Dumpster Location Only 0231-2019 Spencer Sheffield No 04/15/2019 2019-PR-111
Old Civil Engineering-Door 108A 0115-2019 David Tate No 04/12/2019 2019-PR-110
Weber Re-roof Crane Plan 0290-2018 Jennifer Disotell No 04/11/2019 2019-PR-108
Correa-Baena Lab Renovation 0049-2019 Ngugi Mathu No 04/10/2019 2019-PR-107
CAREN Fit Up-MARC 0006-2019 Bill Oswell No 04/08/2019 2019-PR-100
O'Keefe Building Renovation FA Panel Closet-HVAC FIRE DAMPER Carla Barbour No 04/08/2019 2019-PR-105
Cyber Security Research Lab Renovation 0003-2019 Ngugi Mathu No 04/04/2019 2019-PR-102
Freight Elevator Modernization-Edge Intercollegiate Athletic Center Jamie Ready No 04/04/2019 2019-PR-104
Undergrad Lab Renovation-College of Business 0416-2018 Maria Ceballos No 04/03/2019 2019-PR-096
GTRI 1669-Lab 028 Renovation 0078-2018 Bill Oswell No 04/03/2019 2019-PR-099
College of Computing-Auditorium 017 Renovation 0383-2018 Jennifer Disotell No 04/02/2019 2019-PR-094
Howey Renovation (Dr. Evenbly) 0075-2019 Ngugi Mathu No 04/02/2019 2019-PR-095
Price Gilbert Library Renewal-Crosland Tower Crane Safety Plan 2014-0146 Carla Barbour No 04/02/2019 2019-PR-097
CODA Microgrid Crane Plan 0199-2019 Kynthia Gaines No 04/02/2019 2019-PR-098
Radiochemistry Lab-Boggs 0130-2019 Maria Del Mar Ceballos No 04/01/2019 2019-PR-088
Radiochemistry Computer Lab Relocation 0130-2019 Maria Del Mar Ceballos No 04/01/2019 2019-PR-091
GTRI Cobb South-Floor 4 0320-2016 Nic Palfrey No 04/01/2019 2019-PR-092
Price GIlbert Library Renewal Crane Plan C0146-2014 Carla Barbour No 03/29/2019 2019-PR-093
MS&E-Blazeck Research Lab 0459-2018 Bill Oswell No 03/27/2019 2019-PR-087
School of Modern Languages Renovation 0261-2019 Maria Del Mar Ceballos No 03/26/2019 2019-PR-086
Montgomery Knight-Room 308 Refresh 0198-2019 Allison Gerstung No 03/25/2019 2019-PR-085
Impact LLC-Partial Interior Renovation 0160-2019 Daniel Powell No 03/21/2019 2019-PR-067
NEETRAC Phase IV Expansion Building 0410-2017 Kynthia Gaines No 03/20/2019 2019-PR-068
Dr. Chen Lab 401-Montgomery Knight 0285-2019 Maria Del Mar Ceballos No 03/20/2019 2019-PR-075
Okeefe FA Panel Closet-Supply Addition C0102-2015 Carla Barbour No 03/20/2019 2019-PR-076
Dr. Molzahn GRA Lab-Van Leer 0084-2019 Bill Oswell No 03/20/2019 2019-PR-077
Heffernan Wall Replacement-General Campus Jerry Young No 03/20/2019 2019-PR-078
Greenfield Street Corridor 0264-2017 Brad Morris No 03/20/2019 2019-PR-079
State Street Wall/Sidewalk Replacement 0106-2019 Jerry Young No 03/20/2019 2019-PR-080
Price Gilbert Library Renewal-Crosland Tower Crane Safety Plan C0146-2014 Carla Barbour No 03/20/2019 2019-PR-081
NEETRAC Phase IV Expansion Building 0410-2017 Kynthia Gaines No 03/15/2019 2019-PR-031
Hefner and Armstrong Renovations(Honors Program) 0066-2019 Daniel Powell No 03/14/2019 2019-PR-064
Motor Pool Standby Generator 0312-2018 Brian Clarke No 03/13/2019 2019-PR-070
Smith-Brown Residence Halls-Emergency Generator Replacement 0465-2018 Spencer Sheffield No 03/13/2019 2019-PR-071
Howell Residence Hall-Emergency Generator Replacement 0466-2018 Spencer Sheffield No 03/13/2019 2019-PR-072
Cloudman-Harrison Residence Halls-Emergency Generator Replacement 0466-2018 Spencer Sheffield No 03/13/2019 2019-PR-073
NEETRAC Phase IV Expansion Building 0410-2017 Kynthia Gaines No 03/11/2019 2019-PR-037
Dalney Building-Fire Suppression 0370-2017 Brad Morris No 03/11/2019 2019-PR-061
Price Gilbert Library Renewal-Crosland Tower Crane Safety Plan 2014-0146 Carla Barbour No 03/11/2019 2019-PR-063
Dalney Building Fire Suppression-Preaction System 0370-2017 Brad Morris No 03/11/2019 2019-PR-065
Carbice Lab L1305 Code Corrections-FORD 0339-2018 Jennifer Disotell No 03/06/2019 2019-PR-057
ACC Network Ops. Fire Alarm ASBUILT C0404-2018 Carla Barbour No 02/28/2019 2019-PR-050
Smithgall-Parent & Family Office 0242-2019 Maria Del Mar Ceballos No 02/28/2019 2019-PR-051
Ford ES&T Kaiser Research Lab 0479-2018 Bill Oswell No 02/28/2019 2019-PR-052
North Campus Deck Lighting Upgrade 0071-2019 Malte Weiland No 02/28/2019 2019-PR-053
Wardlaw Parking Deck LED Lighting Upgrade 0067-2019 Malte Weiland No 02/28/2019 2019-PR-054
GESPC Controls Upgrade Initiative (BME) C0378-2018 Greg Spiro No 02/25/2019 2019-PR-048
Dalney Building Fire Alarm 0370-2017 Brad Morris No 02/22/2019 2019-PR-046
GESPC Controls Upgrade Initiative C0378-2018 Greg Spiro No 02/21/2019 2019-PR-044
Architecture East Accessible Restrooms 0252-2018 Amber Chellis-Omedo No 02/21/2019 2019-PR-045
Domestic Water Heater Replacement 0883-2018 Spencer Sheffield No 02/21/2019 2019-PR-047
SEB-Peeta Driving Simulation Lab 2nd Floor 0388-2018 Maria Del Mar Ceballos No 02/20/2019 2019-PR-043
Maulding Residence Hall Wireless Upgrade 0138-2019 Spencer Sheffield No 02/19/2019 2019-PR-042
GTRI Cobb South(L-22)-Floor 3 0320-2016 Nic Palfrey No 02/15/2019 2019-PR-041
GT CODA DATA Center Fit Up CO116-2019 Chris Sanders No 02/14/2019 2019-PR-038
Cicerone Lab Fit-Up 0087-2019 Ngugi Mathu No 02/14/2019 2019-PR-040
Price Gilbert Library Renewal-Solar/Harvested Rain Water Installation 0146-2014 Lindsey Cottingham No 02/13/2019 2019-PR-035
Ferst Drive Streetscape North 0222-2017 Jerry Young No 02/13/2019 2019-PR-036
MRR-FY16 Architecture West Fire Alarm System Replacement-AS BUILTS 0097-2018 Brian Clarke No 02/06/2019 2019-PR-011
CODA Tenant Fit Up Floors 12 and 13 0009-2017 Chris Sanders No 02/06/2019 2019-PR-014
CODA Tenant Fit Up Floors 14-16 0009-2017 Chris Sanders No 02/06/2019 2019-PR-015
The Living Building-Kendeda (PV) 0418-2017 John Duconge No 02/04/2019 2019-PR-027
College of Computing-Lecture Hall 016 Reno Phase II 0400-2018 Jennifer Disotell No 01/31/2019 2019-PR-023
Ford ES & T-EAS Admin Office Room 1173 0065-2019 Mitchell Shelton No 01/31/2019 2019-PR-024
Price Gilbert Library Crane Safety Plan 2014-0146 Lindsey Cottingham No 01/31/2019 2019-PR-025
DM Smith Bldg. York Roof Top Unit-RTU Repair Crane Plan 0346D-19 No 01/31/2019 2019-PR-026
Van Leer-Molzahn Lab 0084-2019 Bill Oswell No 01/30/2019 2019-PR-021
Ratcliff Lab Renovation-Cherry Emerson 0452-2018 Ngugi Mathu No 01/28/2019 2019-PR-017
Van Leer Freight Elevator Renovation Bill Oswell No 01/28/2019 2019-PR-018
CRC Olympic Pool HVAC Renovation 0085-2019 Daniel Powell No 01/28/2019 2019-PR-022
Price Gilbert-Full Building 2014-0146 Lindsey Cottingham No 01/25/2019 2018-PR-391
GTRI Cobb South-Fire Alarm L12 0320-2016 Lindsey Cottingham No 01/23/2019 2019-PR-013
Sustainable Education Building-Dr. Peeta Driver Simulation Lab 0388-2018 Maria Del Mar Ceballos No 01/23/2019 2019-PR-020
Elevator Equipment Crane Safety Plan-Crosland Tower 2014-0146 Lindsey Cottingham No 01/22/2019 2019-PR-019
8th Street Apartments Wireless Upgrade 0123-2019 Spencer Sheffield No 01/11/2019 2019-PR-010
Paper Tricentennial-Replacement from Diesel to Gas 2018-PFR-2579 Tony Gonzalez No 01/11/2019 2019-PR-012
GTRI Cobb South-Fire Alarm L-22 0320-2016 Lindsey Cottingham No 01/10/2019 2019-PR-007
Intake Center-Smithgall 2019-0101 Brad Morris No 01/10/2019 2019-PR-009
CCRF Bldg 5 Renovation 0211-2018 Carl Beasley No 01/07/2019 2019-PR-008
Howey Instructional Space Renovation Phase 1&2 0169-2019 Nic Palfrey No 01/04/2019 2019-PR-001
The Living Building-Kendeda (Fire Alarm) 0418-2017 John Duconge No 01/04/2019 2019-PR-004
Price Gilbert Library -Crane Plan Subbasement Item Removal 30000000 Lindsey Cottingham No 01/04/2019 2019-PR-005
Price Gilbert-Revised Logistics Plan 2014-0146 Lindsey Cottingham No 01/04/2019 2019-PR-006
Dalney Building-Crane Plan 0370-2017 Brad Morris No 12/20/2018 2018-PR-428
Egress Stair Tower Replacement-Crane Plan 0008-2019 Jennifer Disotell No 12/19/2018 2018-PR-425
GTRI Cobb South-Bridge Crane Lift Plan 0320-2016 Lindsey Cottingham No 12/19/2018 2018-PR-426
Whiteley Lab Fit-Up 0347-2018 Ngugi Mathu No 12/18/2018 2018-PR-418
Dr. Shimeng Yu Lab-Fit Up 0028-2019 Ngugi Mathu No 12/18/2018 2018-PR-420
MRDC-WEPFER 2nd Floor-Lobby Renovation 0179-2019 Bill Oswell No 12/18/2018 2018-PR-424
Price Gilbert Construction Logistics Plan 2014-0146 Lindsey Cottingham No 12/17/2018 2018-PR-419
Intake Center-Smithgall 0101-2019 Brad Morris No 12/17/2018 2018-PR-421
ACC Network Ops Ctr.-Revised Fire Alarm Shop Drawings C0404-2018 Carla Barbour No 12/13/2018 2018-PR-416
Boggs Room B-69 Renovation-Revision 0002-2018 Ngugi Mathu No 12/12/2018 2018-PR-412
Crosland Tower Final Fire Alarm Drawings and Central Station Report 2014-0146 Lindsey Cottingham No 12/12/2018 2018-PR-413
Boggs Passenger Elevator Renovation 0327-2018 Bill Oswell No 12/11/2018 2018-PR-414
CODA Tenant Fit Up-Floor 9-11 0009-2017 Chris Sanders No 12/10/2018 2018-PR-406
CODA Tenant Fit Up Floor 12-13 0009-2017 Chris Sanders No 12/10/2018 2018-PR-407
CODA Tenant Fit Up-Floor 14-16 0009-2017 Chris Sanders No 12/10/2018 2018-PR-409
Dalney Building-Fire Suppression 0370-2017 Brad Morris No 12/06/2018 2018-PR-405
Howey Physics-Evenbly Office Renovations 0075-2019 Ngugi Mathu No 12/05/2018 2018-PR-395
Petit DGMS & Fire Alarm Upgrades 0018-2019 Greg Spiro No 12/05/2018 2018-PR-403
Crosland Tower-IFC Section 510 Compliance 2014-0146 Lindsey Cottingham No 12/04/2018 2018-PR-392
CODA Tenant Fit Up-Floor 14-16 0009-2017 Chris Sanders No 12/04/2018 2018-PR-394
CODA Tenant Fit Up-Floor 9-11 Tranche 2 0009-2017 Chris Sanders No 12/04/2018 2018-PR-397
Vision Glass(Doors)-Lyman Emerson Addition 0051-2019 Amber Chellis-Omedo No 12/04/2018 2018-PR-400
Boggs Room B-69 Renovation-Revision 0002-2018 Ngugi Mathu No 12/03/2018 2018-PR-401
CODA Tenant Fit Up-Floor 5-8 Tranche 1 0009-2017 Chris Sanders No 11/30/2018 2018-PR-398
ACC Network Operations Center-Crane Plan C0404-2018 Carla Barbour No 11/29/2018 2018-PR-399
NEETRAC Phase IV Expansion (Foundation Plan) 0410-2017 Kynthia Gaines No 11/28/2018 2018-PR-393
CODA Tenant Fit Up (Floors 5-16) 0009-2017 Chris Sanders No 11/28/2018 2018-PR-396
NAAN Elevator Modernization-Crane Plan 18-155183 John Witt No 11/26/2018 2018-PR-387
Shu Jia Lab-U A Whitaker 0487-2018 Kynthia Gaines No 11/26/2018 2018-PR-388
Studio A-Global Learning Center 0269-2018 Amber Chellis-Omedo No 11/26/2018 2018-PR-389
Perry/Matheson Living Learning Community Renovation-Revision 2 0458-2018 Daniel Powell No 11/26/2018 2018-PR-390
Kappa Alpha Theta-Fire Suppression No 11/19/2018 2018-PR-382
Interdisciplinary Neighborhood Corridor Upgrade Phase 3 CO229-2017 Bill Oswell No 11/15/2018 2018-PR-376
MRR-FY16 Architecture West Fire Alarm System Replacement 0097-2018 Brian Clarke No 11/15/2018 2018-PR-377
KAT Parking Lot at Techwood-Road Closure 0095-2019 Daniel Powell No 11/15/2018 2018-PR-378
Boggs Room B-69 Renovation 0002-2018 Ngugi Mathu No 11/15/2018 2018-PR-379
Boggs Room B-69 Renovation 0002-2018 Ngugi Mathu No 11/15/2018 2018-PR-380
Fulmer Hall Crane Plan 18-194202 John Witt No 11/15/2018 2018-PR-381
Smithgall-Intake Center 0101-2019 Brad Morris No 11/12/2018 2018-PR-374
Shu Jia Lab-U A Whitaker 0487-2018 Kynthia Gaines No 11/09/2018 2018-PR-372
Exterior Stair Tower Replacement-Alumni House 0008-2019 Jennifer Disotell No 11/09/2018 2018-PR-373
Georgia Tech Police Dept. Campus Safety Facility-FA BR30 1607 Chris Sanders No 11/08/2018 2018-PR-370
Global Learning Center(GLC) Lower Level Renovation 0097-2018 Amber Chellis-Omedo No 11/08/2018 2018-PR-371
Marcus Nano-Lab Wing DGMS Annunciators 0390-2018 Greg Spiro No 11/07/2018 2018-PR-365
Mason High-Bay Office 1269 0009-2019 Maria Del Mar Ceballos No 11/07/2018 2018-PR-366
KAT Parking Lot at Techwood 0095-2019 Daniel Powell No 11/07/2018 2018-PR-367
ISyE Annex Van Hentenryck Computational Lab Renovation 0418-2018 Mitchell Shelton No 11/07/2018 2018-PR-368
ISyE Annex Van Hentenryck Computational Lab Renovation-FA 0418-2018 Mitchell Shelton No 11/07/2018 2018-PR-369
EAS Admin Offices 0065-2019 Maria Del Mar Ceballos No 11/06/2018 2018-PR-361
NEETRAC Phase IV Expansion (Civil/Sitework Review) 0410-2017 Kynthia Gaines No 11/06/2018 2018-PR-362
GRA Team Room Renovation 0388-2018 Maria Del Mar Ceballos No 11/06/2018 2018-PR-363
MRDC Weber 2nd Floor-Lobby Renovation 0179-2019 Bill Oswell No 11/05/2018 2018-PR-355
Dalney Building-Elevator Review 0370-2017 Brad Morris No 11/05/2018 2018-PR-358
CNES Backend Phase 2 0078-2016 Greg Spiro No 11/05/2018 2018-PR-360
Alumni House Replacement-Phase 1 0399-2018 Tony Gonzalez No 11/02/2018 2018-PR-354
Dalney Building-Fire Alarm 0370-2017 Brad Morris No 11/02/2018 2018-PR-356
Georgia Tech Police Dept. Campus Safety Facility-FS C0346-2016 Chris Sanders No 11/01/2018 2018-PR-333
Global Learning Center (GLC) Lower Level Renovation 0097-2018 Amber Chellis-Omedo No 11/01/2018 2018-PR-349
Sustainable Education Building-2nd Floor Room 215 0388-2018 Amber Chellis-Omedo No 11/01/2018 2018-PR-352
Sustainable Education Building-2nd Floor Room 215 0388-2018 Amber Chellis-Omedo No 11/01/2018 2018-PR-353
Blazeck Lab-MS&E 0459-2018 Bill Oswell No 10/31/2018 2018-PR-293
Interdisciplinary Neighborhood Corridor Upgrade Phase 3-COC CO229-2017 Bill Oswell No 10/31/2018 2018-PR-340
ITG Door Access Upgrade-ISYE & Groseclose-O'Keefe 0029-2019 Carla Barbour No 10/26/2018 2018-PR-342
North Deck Parking Office Renovation-Electrical Plan 0231-2017 Daniel Powell No 10/26/2018 2018-PR-343
Curran Deck Parking Office Renovation-Electrical 0273-2018 Daniel Powell No 10/26/2018 2018-PR-344
CODA Tenant Fit Up 0009-2017 Chris Sanders No 10/26/2018 2018-PR-345
North Deck Parking Office Renovation-FA 0231-2017 Daniel Powell No 10/26/2018 2018-PR-347
EHS Auxiliary Heat 0242-2018 Tony Gonzalez No 10/26/2018 2018-PR-348
Crosland Tower-ERRCS System per IFC 510 2014-0146 Lindsey Cottingham No 10/18/2018 2018-PR-336
North Deck Parking Office Renovation-Dumpster Location 0231-2017 Daniel Powell No 10/17/2018 2018-PR-341
Shue Jia Lab-U.A. Whitaker 0487-2018 Bill Oswell No 10/16/2018 2018-PR-288
Crosland Tower Crane Safety Plan-Bridge Steel Erection 2014-0146 Lindsey Cottingham No 10/12/2018 2018-PR-335
ACC Network Operations Center-Sprinkler Dwgs C0404-2018 Carla Barbour No 10/11/2018 2018-PR-331
Perry/Matheson Living Learning Community-Renovation 0458-2018 Daniel Powell No 10/11/2018 2018-PR-332
GTRI Cobb South-Building 762 0320-2016 Lindsey Cottingham No 10/10/2018 2018-PR-315
Stamps Commons Expansion-Auditions Malte Weiland No 10/09/2018 2018-PR-329
West Village Dining Commons-Local Chef Malte Weiland No 10/09/2018 2018-PR-330
Mantalaris Lab-EBB 0017-2019 Bill Oswell No 10/04/2018 2018-PR-325
Peeta Driving Simulation Lab-SEB 0288-2018 Maria Del Mar Ceballos No 10/04/2018 2018-PR-326
GLC Analog to Digital Room 319 0269-2018 Amber Chellis-Omedo No 10/04/2018 2018-PR-327
GLC Analog to Digital Room 330/331 0267-2018 Amber Chellis-Omedo No 10/04/2018 2018-PR-328
ACC Network Operations Center-100% CD's Revision 2 C0404-2018 Carla Barbour No 10/03/2018 2018-PR-321
Zinn Combustion Lab-HP Air Sys Modification & Repair Project 0226-2018 Sam Dahdah No 10/02/2018 2018-PR-319
NAAN Elevator Modernization 18-155183 John Witt No 10/02/2018 2018-PR-322
Dalney Building-Crane Plan 0370-2017 Brad Morris No 10/02/2018 2018-PR-323
ACC Network Ops-Rev. P004-New FDC Options C0404-2018 Carla Barbour No 10/02/2018 2018-PR-324
Dalney Building 0370-2017 Brad Morris No 09/24/2018 2018-PR-280
MRR(Weber 1 & 2) Re-roof Project 0290-2018 Jennifer Disotell No 09/19/2018 2018-PR-313
Skiles 014/014A Interior Renovation 0450-2018 Maria Ceballos No 09/19/2018 2018-PR-314
Dalney Building-New Boiler 0370-2017 Brad Morris No 09/18/2018 2018-PR-312
Daniel Lab Roof Replacement 0290-2018 Ngugi Mathu No 09/13/2018 2018-PR-308
Crosland Roof Coping-Crane Plan 2014-0146 Lindsey Cottingham No 09/13/2018 2018-PR-309
Kendeda Building-Fire Suppression 0418-2017 John Duconge No 09/11/2018 2018-PR-307
College of Business-Door Accessibility 0394-2018 Amber Chellis-Omedo No 09/04/2018 2018-PR-303
Global Learning Center (GLC) Lower Level Renovation 0097-2018 Amber Chellis-Omedo No 09/04/2018 2018-PR-305
GTRI 1676 Family Restroom Renovation 0125-2018 Jennifer Disotell No 09/04/2018 2018-PR-306
Crosland-Terrace Pavers Crane Safety Plan 2014-0146 Lindsey Cottingham No 08/31/2018 2018-PR-302
CULC-Power Reels(Computer Lab) 0021-2019 David Tate No 08/30/2018 2018-PR-296
Groseclose Steam Repair 0037-2019 Fenella Bryant No 08/30/2018 2018-PR-297
Kaiser Lab-Ford ES&T 0479-2018 Bill Oswell No 08/27/2018 2018-PR-292
Dalney Building-Crane Plan (Steel) 0370-2017 Brad Morris No 08/27/2018 2018-PR-294
Crosland Tower Crane Safety Plan-Generator 2014-0146 Lindsey Cottingham No 08/27/2018 2018-PR-295
Ferst Center for the Arts Renovation Project 0295-2018 Cristina Fannin No 08/24/2018 2018-PR-284
ITG Campus Door Access Upgrade-Door & Door Hardware 0246-2018 Carla Barbour No 08/24/2018 2018-PR-291
Poly Deck 2018-Sigma Phi Epsilon No 08/23/2018 2018-PR-290
Center Street Fire Alarm Upgrade AS BUILTS 0184-2017 Spencer Sheffield No 08/22/2018 2018-PR-289
Van Hentenryck Lab-ISYE Annex 0418-2018 Mitchell Shelton No 08/21/2018 2018-PR-285
Klaus Advanced Computing Cntr Supplemental Lighting Deck 2018-0502 Malte Weiland No 08/20/2018 2018-PR-287
Professor HU Lab-Ford Environmental Science & Technology 0263-2018 Ngugi Mathu No 08/17/2018 2018-PR-286
Perry/Matheson Living Learning Community Renovation-Revision 0458-2018 Daniel Powell No 08/16/2018 2018-PR-283
GRA Team Room Renovation 0388-2018 Maria Del Mar Ceballos No 08/15/2018 2018-PR-281
GTRI Cobb South-L12 Sprinkler Shops 0320-2016 Lindsey Cottingham No 08/14/2018 2018-PR-275
Interdisciplinary Neighborhood Corridor Upgrade Phase 3 CO229-2017 Bill Oswell No 08/14/2018 2018-PR-276
Evo Event-Bobby Dodd Stadium 0174-2018 Daniel Powell No 08/14/2018 2018-PR-278
Skiles-014 & 014A Ground Floor 0450-2018 Maria Del Mar Ceballos No 08/14/2018 2018-PR-279
GTRI 1699-Area 509/513 0483-2018 Jennifer Disotell No 08/14/2018 2018-PR-282
Swann Stair Refinishing David Tate No 08/09/2018 2018-PR-273
GTRI Cobb South-1st floor Crane Plan 0320-2016 Lindsey Cottingham No 08/09/2018 2018-PR-274
O'Keefe Fire Alarm Panel Closet C0102-2015 Carla Barbour No 08/07/2018 2018-PR-260
A/V Upgrades Wardlaw Building-REVISION 0343-2018 Kynthia Gaines No 08/03/2018 2018-PR-271
Dr. Hu Lab-Fit Up Ford ES&T 0263-2018 Ngugi Mathu No 08/02/2018 2018-PR-270
ACC Network Operations Center-100% Const. Docs C0404-2018 Carla Barbour No 07/31/2018 2018-PR-267
GLC 315 Office-Revision 0329-2018 Amber Chellis-Omedo No 07/31/2018 2018-PR-269
Bobby Dodd/Callaway Plaza-Video Board Install No 07/30/2018 2018-PR-268
Gilbert Hillhouse Boggs-First Floor Renovation C0310-2017 Nic Palfrey No 07/26/2018 2018-PR-261
Smithgall LGBTQIA Resource Center-Fire Alarm 0311-2018 Fenella Bryant No 07/26/2018 2018-PR-265
Edge Lobby Refresh No 07/24/2018 2018-PR-263
Kendeda Building-Crane Plan 0418-2017 John Duconge No 07/23/2018 2018-PR-262
Smithgall LGBTQIA Resource Center-Fire Suppression 0311-2018 Fenella Bryant No 07/23/2018 2018-PR-264
Bill Moore SS Center-Basement Storage Closet 0374-2018 Mitchell Shelton No 07/18/2018 2018-PR-258
Savant Densification Project for International Education 0389-2018 Mitchell Shelton No 07/18/2018 2018-PR-259
Ferst Center Chair Replacement 0295-2018 Cristina Fannin No 07/17/2018 2018-PR-255
Boggs, Gilbert Hillhouse Room B-69 Reno 0002-2018 Ngugi Mathu No 07/17/2018 2018-PR-256
GTRI 1669-Baker 028 Renovation 0078-2018 Jennifer Disotell No 07/17/2018 2018-PR-257
Young/Sawicki Lab Renovation-FA 0094-2018 Kynthia Gaines No 07/16/2018 2018-PR-253
Price Gilbert Beam Erection Hoisting 2014-0146 Lindsey Cottingham No 07/16/2018 2018-PR-254
MRDC 2200 Pod Renovation Studio-Fire Suppression 0067-2018 Bill Oswell No 07/13/2018 2018-PR-224
Relocation Tech Wreck to Howell-Revision 0239-2018 Spencer Sheffield No 07/13/2018 2018-PR-251
Brittain Renovation T Room-Revision 0239-2018 Spencer Sheffield No 07/13/2018 2018-PR-252
Dr. Hu Lab-Fit Up Ford ES&T 0263-2018 Ngugi Mathu No 07/10/2018 2018-PR-235
Family Apts LED Lighting Upgrade 0045-2018 Malte Weiland No 07/10/2018 2018-PR-247
Instructional Center-Tennenbaum Auditorium 0176-2018 Nic Palfrey No 07/10/2018 2018-PR-248
O'Keefe Gymnasium-Video Board Install 180361 No 07/09/2018 2018-PR-245
North Ave Apartment South Deck LED Upgrade 0043-2018 Malte Weiland No 07/09/2018 2018-PR-246
ACC Network Operations Center-Structural Drawings C0404-2018 Carla Barbour No 07/03/2018 2018-PR-238
Bill Moore SS Center-Basement Storage Closet 0374-2018 Mitchell Shelton No 07/03/2018 2018-PR-243
The Kendeda Building-Innovative Sustainable Design 0418-2017 John Duconge No 07/02/2018 2018-PR-109
MRDC 2200 Pod Invention Studio-Revision 0067-2018 Bill Oswell No 07/02/2018 2018-PR-239
Egde/Rice AD Office Renovation 303-2018 Fenella Bryant No 06/29/2018 2018-PR-231
Quad Cafe Renovation-MS&E Dumpster Location 0089-2018 Daniel Powell No 06/29/2018 2018-PR-236
ACC Network Operations Center-Site Logistics C0404-2018 Carla Barbour No 06/29/2018 2018-PR-237
Young/Sawicki Lab Renovation 0094-2018 Kynthia Gaines No 06/29/2018 2018-PR-241
UA Whitaker-UAW 2110 Remodel 0017-2018 Mitchell Shelton No 06/28/2018 2018-PR-232
Material Hoist Dismantle Crane Safety Plan-Crosland Tower 2014-0146 Lindsey Cottingham No 06/28/2018 2018-PR-240
ES&T Robel Lab Fit Up-Fire Suppression 0218-2018 Ngugi Mathu No 06/21/2018 2018-PR-228
The Kendeda Building-Elevator Shop Drawings 0418-2017 John Duconge No 06/20/2018 2018-PR-225
A French-Office 001 Renovation-Fire Alarm 0144-2018 Fenella Bryant No 06/19/2018 2018-PR-221
Edge/Rice AD Office Renovation-Fire Alarm 0303-2018 Fenella Bryant No 06/19/2018 2018-PR-222
MRDC 2200 Pod Renovation Studio 0067-2018 Bill Oswell No 06/19/2018 2018-PR-223
GTRI 1649 CRB 5th Floor Server Room-Revision 320-2017 Bill Oswell No 06/18/2018 2018-PR-217
Smithgall LGBTQIA Resource Center-Fire Alarm 0311-2018 Fenella Bryant No 06/18/2018 2018-PR-218
Smithgall LGBTQIA Resource Center-Fire Suppression 0311-2018 Fenella Bryant No 06/18/2018 2018-PR-219
Greenfield Street Water Infrastructure 2018-0476 Brad Morris No 06/15/2018 2018-PR-216
Settlement Repair Life Safety-College of Business 0492-2018 Jamie Ready No 06/15/2018 2018-PR-220
ES&T Robel Lab Fit Up 0218-2018 Ngugi Mathu No 06/12/2018 2018-PR-213
Peters Parking Deck Generator Replacement-CRANE PLAN 041-2018 Spencer Sheffield No 06/12/2018 2018-PR-214
GLC 315 Office Space 0329-2018 Amber Chellis-Omedo No 06/11/2018 2018-PR-211
Lyman/Emerson Hall Roof Replacement-Egress Plan Jamie Ready No 06/11/2018 2018-PR-212
Edge Intercollegiate Athletic Center 0325-2017 Allison Gerstung No 06/08/2018 2018-PR-210
O'Keefe-Exit Doors 2nd Floor 0470-2018 Maria Del Mar Ceballos No 06/06/2018 2018-PR-206
Wardlaw AV Upgrades 0343-2018 Kynthia Gaines No 06/06/2018 2018-PR-207
MARC Callaway Manufacturing Research Center-REVISION 0094-2018 Bill Oswell No 06/06/2018 2018-PR-209
Instructional Center Renovation-Elevator C0275-2016 Nic Palfrey No 06/04/2018 2018-PR-205
GT Campus Service Warehouse Reroofing 0278-2018 Daniel Powell No 06/01/2018 2018-PR-203
Smithgall LGBTQIA Resource Center 0311-2018 Fenella Bryant No 06/01/2018 2018-PR-204
Van Leer IDC-Evacuation Plan-Revision C0270-2015 Carla Barbour No 05/30/2018 2018-PR-201
Densification Project for International Education-Savant 0389-2018 Allison Gerstung No 05/24/2018 2018-PR-198
Edge Dining Hall Renovation-Fire Suppression 0299-2018 Fenella Bryant No 05/24/2018 2018-PR-199
Callaway MARC Building-Fire Alarm Replacement AS BUILT 0274-2015 Kynthia Gaines No 05/23/2018 2018-PR-143
Quad Cafe Renovation-MS&E 0089-2018 Daniel Powell No 05/23/2018 2018-PR-197
College of Computing-Lecture Hall 016 Reno-Fire Sprinkler 0400-2018 Jennifer Disotell No 05/22/2018 2018-PR-193
CREATE-X Renovation at Woody's-Fire Alarm 0089-2018 Daniel Powell No 05/22/2018 2018-PR-195
Weber 1 Rm. 213/214 Consolidation No 05/22/2018 2018-PR-196
Highland Bakery Renovation College of Computing 0026-2018 Daniel Powell No 05/18/2018 2018-PR-188
Crosland Tower Crane Safety Plan-Elevator Equipment 2014-0146 Lindsey Cottingham No 05/18/2018 2018-PR-189
GLC Lower Level Renovation-REVISION 0097-2018 Amber Chellis-Omedo No 05/18/2018 2018-PR-190
GTRI Cobb Lockheed L-12 Renovation-Revision 0320-2016 Lindsey Cottingham No 05/17/2018 2018-PR-185
233 Renovation-Global Learning Center 0271-2018 Amber Chellis-Omedo No 05/17/2018 2018-PR-187
Center Street Apartments Domestic & Hydronic Boiler-Revision 0220-2018 Daniel Powell No 05/16/2018 2018-PR-186
MRDC 2200 Pod Invention Studio-Revision 0067-2018 Bill Oswell No 05/15/2018 2018-PR-181
Crosland Tower Crane Safety Plan 2014-0146 Lindsey Cottingham No 05/15/2018 2018-PR-183
GTRI Cobb Lockheed L-22 Renovation-Revision 0320-2016 Lindsey Cottingham No 05/15/2018 2018-PR-184
Football Locker Room Renovations/Rice Building-Revision 0050-2018 Lindsey Cottingham No 05/14/2018 2018-PR-178
Printing & Copying Services-Geothermal HVAC System Replacement-REVISION 0035-2016 Craig Forte No 05/14/2018 2018-PR-179
Edge/Rice AD Office Renovation 0303-2018 Fenella Bryant No 05/14/2018 2018-PR-180
Global Learning Center-315 Renovation 0329-2018 Amber Chellis-Omedo No 05/14/2018 2018-PR-182
Lyman Hall Restrooms & Breakroom Renovation 0158-2018 Mitchell Shelton No 05/11/2018 2018-PR-175
811 Marietta Street Geothermal HVAC System Replacement-Crane Plan 0035-2016 Craig Forte No 05/11/2018 2018-PR-177
Dr. Hu Lab-Fit Up Ford ES&T 0263-2018 Ngugi Mathu No 05/10/2018 2018-PR-167
GT Campus Services Warehouse Remodel-Revision 18-147917 John Witt No 05/10/2018 2018-PR-172
GTRI 1699 Fifth Floor Closed Room 320-2018 Bill Oswell No 05/10/2018 2018-PR-173
North Campus Parking Deck Support Space Renovation-Revision 0231-2017 Daniel Powell No 05/09/2018 2018-PR-169
ITG Campus Door Access Upgrade-(MSE) Fire Stopping Product Data 0236-2018 Carla Barbour No 05/09/2018 2018-PR-170
Parker Biotechnology-Petit Office Renovation 1104 & 1109 0115-2018 Maria Del Mar Ceballos No 05/07/2018 2018-PR-155
Parker Biotechnology-Petit Office Renovation 1104 & 1109-Fire Suppression 0115-2018 Maria Del Mar Ceballos No 05/07/2018 2018-PR-156
College of Computing-Mail Room Conversion 0103-2018 Elvia Lam No 05/07/2018 2018-PR-160
Edge Dining Hall Renovation-Fire Alarm 0299-2018 Fenella Bryant No 05/07/2018 2018-PR-161
BME Graduate Office Renovations-Fire Alarm 0018-2018 Kynthia Gaines No 05/07/2018 2018-PR-162
College of Computing-Lecture Hall 016 Reno Phase 2-Fire Alarm Jennifer Disotell No 05/07/2018 2018-PR-163
Dumpster Site Staging-ITG Campus Door Access Upgrade-(MSE) 0236-2018 Carla Barbour No 05/07/2018 2018-PR-164
Business Services-Property Management Renovation 0170-2018 Amber Chellis-Omedo No 05/07/2018 2018-PR-165
LOVE Ramprasad Lab Fit Up-Fire Alarm 0130-2018 Mitchell Shelton No 05/04/2018 2018-PR-149
ITG Campus Door Access Update-MS & E 0236-2018 Carla Barbour No 05/04/2018 2018-PR-150
ITG Campus Door Access Update-Skiles 0246-2018 Carla Barbour No 05/04/2018 2018-PR-153
Curran Street Deck Office Renovation 0273-2017 Daniel Powell No 05/04/2018 2018-PR-158
GTRI 1645 Baker Building-2nd Floor Expansion 0223-2018 Jennifer Disotell No 05/03/2018 2018-PR-142
GTRI 1640 CRB 3rd Floor Secure Space-Centennial Research Building 0202-2017 Bill Oswell No 05/03/2018 2018-PR-144
Gilbert Hillhouse Boggs-First Floor Renovation-Fire Suppression C0310-2017 Nic Palfrey No 05/03/2018 2018-PR-145
Relocate Tech Wreck-Howell 0239-2018 Spencer Sheffield No 05/02/2018 2018-PR-139
North Ave Apartment Complex Crane Plan 0037-2018 Spencer Sheffield No 05/02/2018 2018-PR-151
College of Computing-Lecture Hall 016 Reno Phase 2 Revision Jennifer Disotell No 05/02/2018 2018-PR-154
Petit Microelectronics Building Lab 246 0143-2018 Corey Pressley No 05/02/2018 2018-PR-159
A. French-Office 001 Renovation 0144-2018 Allison Gerstung No 05/01/2018 2018-PR-136
Manufacturing Research Center-Office Renovation 0219-2018 Maria Del Mar Ceballos No 04/30/2018 2018-PR-137
Brittain Renovation T Room-Brittain 0239-2018 Spencer Sheffield No 04/30/2018 2018-PR-138
Bunger Henry Prime Lab 341-Revision 3 0179-2018 Ngugi Mathu No 04/30/2018 2018-PR-141
JA Swann-Office 117 Renovation 0175-2018 Maria Del Mar Ceballos No 04/27/2018 2018-PR-135
College of Computing-2nd Floor Server Room 247 02023-2018 Tony Gonzalez No 04/26/2018 2018-PR-133
B.M. Student Success Center-Basement Storage Closet 0374-2018 Maria Del Mar Ceballos No 04/26/2018 2018-PR-134
Edge Building Dining Hall Renovation 0299-2018 Fenella Bryant No 04/24/2018 2018-PR-123
Dalney Buidling-Demo Only 0370-2017 Brad Morris No 04/24/2018 2018-PR-128
Ben T. Zinn Lab Rooms 121 and 129 Renovations 0110-2018 Bill Oswell No 04/23/2018 2018-PR-131
Locker Room Renovation-Fire Alarm 2018-0050 Lindsey Cottingham No 04/20/2018 2018-PR-127
Hopkins Residence Hall 4160v Upgrade 0259-18 Jennifer Disotell No 04/18/2018 2018-PR-114
GTRI South Cobb Campus-Infrastructure & Utilities 0320-2016 Lindsey Cottingham No 04/18/2018 2018-PR-117
Football Locker Room Renovation-Bobby Dodd Amendment 2018-0050 Lindsey Cottingham No 04/18/2018 2018-PR-122
Bunger Henry Prime Lab 341-Revision 0179-2018 Ngugi Mathu No 04/18/2018 2018-PR-124
CNES Back End Phase 2 0078-2016 Greg Spiro No 04/17/2018 2018-PR-105
J. S. Coon-Renovation (Dr. Wiese) 0368-2018 Maria Del Mar Ceballos No 04/17/2018 2018-PR-111
Business Services Large Conference Room Door-Fire Alarm 0136-2018 Amber Chellis-Omedo No 04/17/2018 2018-PR-113
Architecture West Fire Alarm Upgrade 0291-2016 Brian Clarke No 04/17/2018 2018-PR-116
GTRI 1640 CRB 3rd Floor Secure Space 0202-2017 Carl Beasley No 04/17/2018 2018-PR-118
Gilbert Hillhouse Boggs-First Floor Renovation C0310-2017 Nic Palfrey No 04/17/2018 2018-PR-119
Ford ES&T-Wine 3171 & Robel 3175 Lab Fit-Up 0218-2018 Ngugi Mathu No 04/17/2018 2018-PR-120
1st Floor Undergraduate Labs-Gilbert Hillhouse Boggs C0310-2017 Nic Palfrey No 04/16/2018 2018-PR-107
GTRI 1645 2nd Floor Expansion-Revision 0079-2018 Bill Oswell No 04/16/2018 2018-PR-121
Fire Alarm Upgrade-AS BUILTS (2017-FA-091) 0293-2016 Jennifer Disotell No 04/12/2018 2018-PR-006
Hinman Courtyard Student Installation 0287-2018 Kim Wilson No 04/12/2018 2018-PR-091
J. Rimoli Lab Fit Up-Montgomery Knight 0019-2018 Maria Del Mar Ceballos No 04/12/2018 2018-PR-102
Savant-Renovation 0260-2016 Nic Palfrey No 04/12/2018 2018-PR-108
Alumni House-Catwalk (Roof Access from Stairs) 0087-2018 Jennifer Disotell No 04/12/2018 2018-PR-112
Campus Safety Facility-Elevator Shops C0346-2016 Chris Sanders No 04/11/2018 2018-PR-092
GTRI Cobb South-Temporary Site Office 0320-2018 Lindsey Cottingham No 04/11/2018 2018-PR-095
Wardlaw 053F Offices 0107-2018 No 04/11/2018 2018-PR-097
Wardlaw 053F Offices-Fire Suppression 0107-2018 Amber Chellis-Omedo No 04/11/2018 2018-PR-098
Curran Deck LED Lighting 2018-0046 Malte Weiland No 04/11/2018 2018-PR-099
LOVE Ramprasad Lab Fit Up-MRDC II 0130-2018 Amber Chellis-Omedo No 04/10/2018 2018-PR-069
The Kendeda Building-Construction Trailer 0418-2017 John Duconge No 04/10/2018 2018-PR-079
The Blast Wave-DOE 0118-2018 Greg Spiro No 04/10/2018 2018-PR-081
MS & E Smart Labs Wind Tower 0133-2018 Don Alexander No 04/10/2018 2018-PR-088
Van Leer Interdisciplinary Design Commone C0270-2015 Gary Petherick No 04/10/2018 2018-PR-089
8th Street Apartments EGR-Crane Plan 0116-2018 Spencer Sheffield No 04/10/2018 2018-PR-090
811 Marietta Street Geothermal HVAC System Replacement Phase 1 & 2 0035-2016 Craig Forte No 04/10/2018 2018-PR-093
BME Margulies Lab Renovation 0405-2017 Kynthia Gaines No 04/10/2018 2018-PR-096
Alumni House-Fence and Gate (Fire Escape) 0376-2018 Maria Del Mar Ceballos No 04/10/2018 2018-PR-110
J-235 Price Gilbert-Crosland Tower Renewal 2014-0146 Gary Petherick No 04/09/2018 2018-PR-067
Business Services Large Conference Room Door 0136-2018 Amber Chellis-Omedo No 04/06/2018 2018-PR-087
Student Success Center 2nd Floor Restroom Renovation 0345-2108 Mitchell Shelton No 04/05/2018 2018-PR-100
L-12 Demo and Foundation GTRI Cobb County Lockheed 0320-2016 Lindsey Cottingham No 04/02/2018 2018-PR-064
L-22 Demo and Foundation GTRI Cobb County Lockheed 0320-2016 Lindsey Cottingham No 04/02/2018 2018-PR-065
Center Street Fire Alarm Upgrade 0184-2017 Spencer Sheffield No 03/29/2018 2018-PR-062
Wardlaw Center-F53 Renovation 0107-2018 Amber Chellis-Omedo No 03/29/2018 2018-PR-086
GTRI Cobb County Lockheed Sitework 0320-2016 Lindsey Cottingham No 03/28/2018 2018-PR-061
BME Mitchell Lab Renovations 0367-2017 Kynthia Gaines No 03/28/2018 2018-PR-063
Curbcuts 0227-2018 Kim Wilson No 03/28/2018 2018-PR-066
ATDC Accelerate Alley-Centurgy One No 03/27/2018 2018-PR-080
ATDC Accelerate Alley-Centurgy One Fire Alarm No 03/27/2018 2018-PR-084
ATDC Accelerate Alley-Centurgy One Fire Suppression No 03/27/2018 2018-PR-085
PR:IME Lab 341 Renovations 0179-2018 Ngugi Mathu No 03/20/2018 2018-PR-038
GTRI 1604 3rd Floor Secure Space-Revision 0202-2017 Bill Oswell No 03/20/2018 2018-PR-048
Wreck Tech Renovation-West Village Dining Commons 0091-2018 Daniel Powell No 03/20/2018 2018-PR-059
A. French Redesign 207C South 0253-2018 Amber Chellis-Omedo No 03/19/2018 2018-PR-036
Facilities Garage/Warehouse Rated Storage Closet 0189-2018 Fenella Bryant No 03/19/2018 2018-PR-037
Curran Street Parking Deck-Top Level 0142-2018 Spencer Sheffield No 03/16/2018 2018-PR-027
HP Air System Modifications and Repairs-B.Zinn 0226-2018 Sam Dahdah No 03/16/2018 2018-PR-033
Burge Deck LED Lighting Upgrade 2018-0046 Malte Weiland No 03/16/2018 2018-PR-034
GTRI 430 Crane Plan-20 Kv 0065-2018 Brian Clarke No 03/15/2018 2018-PR-074
IBB CHW Coil Emergency Replacement-Crane Lift Plan N/A Craig Forte No 03/15/2018 2018-PR-078
Price Gilbert & Crosland Tower Renewal-Crane Plan C0146-2014 Gary Petherick No 03/15/2018 2018-PR-082
Baker Building/Dalney St-Crane Lift Plan 0161-2017 Mitchell Shelton No 03/15/2018 2018-PR-083
Gilbert Hillhouse Boggs Chemistry First Floor Reno 0310-2017 Nic Palfrey No 03/05/2018 2017-PR-295
Price Gilbert & Crosland Tower Renewal C-0146-2014 Gary Petherick No 02/21/2018 2018-PR-055
North Ave Apartments Reroofing 0284-2015 Spencer Sheffield No 02/20/2018 2018-PR-023
Crosland Tower C-0146-2014 Gary Petherick No 02/19/2018 2018-PR-060
Mechatronics C0229-2017 Bill Oswell No 02/14/2018 2018-PR-054
North Ave HHW & CW Underground Pipe Replacement 0037-2018 Spencer Sheffield No 02/13/2018 2018-PR-002
Renovation of Savant (Ivan Allen College)-FA 0260-2016 Nic Palfrey No 02/13/2018 2018-PR-030
Football LockerRm Reno-Bobby Dodd Stadium 2018-0050 Lindsey Cottingham No 02/13/2018 2018-PR-031
Mechatronics Relocation 229-2017 Bill Oswell No 02/12/2018 2018-PR-012
Petit Biotechnology Building Office Reno 1104&1109 0115-2018 Maria Del Mar Ceballos No 02/12/2018 2018-PR-021
GTRI Project 1698 Building 1 Room 008 0344D18/171-18 Bill Oswell No 02/12/2018 2018-PR-022
Young Sawicki Lab Renovation-Treatmill Pit 0094-2018 Bill Oswell No 02/12/2018 2018-PR-025
A. French 014D Reconfiguration 0254-2018 Amber Chellis-Omedo No 02/12/2018 2018-PR-028
Center Street Fire Alarm Upgrade 0184-2018 Spencer Sheffield No 02/09/2018 2017-PR-301
Fulmer Underground Gas Pipe Replacement 0152-2018 Spencer Sheffield No 02/09/2018 2017-PR-302
Fleet Parts Office 0188-2018 Mitchell Shelton No 02/09/2018 2017-PR-304
Bunger Henry Reno Room 235 0106-2017 Bill Oswell No 02/09/2018 2018-PR-024
Renovation of Savant (Ivan Allen College) 0260-2016 Nic Palfrey No 02/09/2018 2018-PR-029
GTRI 1676 Family Restroom 114 0125-2018 Carl Beasley No 02/08/2018 2017-PR-288
Rimoli Structures Lab Room #106 0019-2018 Maria Del Mar Ceballos No 02/08/2018 2017-PR-299
Boggs Chemistry Building Water Proofing 0228-2017 Nic Palfrey No 02/07/2018 2017-PR-244
Saad Bhamla Lab Fit Up 0376-2017 Bill Oswell No 02/07/2018 2018-PR-010
Lily Cheung Lab Fit Up 0377-2017 Bill Oswell No 02/07/2018 2018-PR-011
BME Mitchell Lab Renovations 0367-2017 Kynthia Gaines No 02/07/2018 2018-PR-014
IDEaS Renovation-FS 0392-2017 Maria Del Mar Ceballos No 02/06/2018 2018-PR-013
U. A. Whitaker Graduate Offices Renovations 018-2018 Bill Oswell No 02/06/2018 2018-PR-017
Van Leer Fire Alarm Plans C0270-2015 Gary Petherick No 02/05/2018 2017-PR-248
Highland Bakery Conference Room Soundproofing-FA 0135-2017 Liz Punch No 02/05/2018 2018-PR-018
Highland Bakery Conference Room Soundproofing-FS 0135-2017 Liz Punch No 02/05/2018 2018-PR-019
GTRI Cobb County Research Facility Exterior Power Bldg. 7 Lindsey Cottingham No 02/02/2018 2017-PR-253
Tech Square Parking Deck 0068-2017 Daniel Powell No 02/02/2018 2017-PR-270
E-Beam Lithographt Tool Enclosure Project 0021-2018 Kynthia Gaines No 02/02/2018 2017-PR-290
E-Beam Lithography Tool Enclosure Project 0021-2018 Kynthia Gaines No 02/02/2018 2017-PR-291
Lily Cheung Lab Fit Up 0377-2017 Bill Oswell No 02/02/2018 2018-PR-007
Saad Bhamia Lab Fit Up 0376-2017 Bill Oswell No 02/02/2018 2018-PR-008
Living Building at Georgia Tech 0418-2017 John Duconge No 02/01/2018 2017-PR-303
MSE Bldg. Mass Spectrometer Renovation 0090-2018 Ngugi Mathu No 01/28/2018 2017-PR-279
CREATE-X Renovation at Woody's 0089-2018 Brad Morris No 01/26/2018 2018-PR-004
Campus Services Warehouse 0278-2018 Daniel Powell No 01/22/2018 2017-PR-267
GTRI Field Office Warner Robbins GA. 0033-2018 Bill Oswell No 01/21/2018 2017-PR-238
College of Computing Advising Corridor 2018-0129 #50 0129-2018 Elvia Lam No 01/21/2018 2017-PR-256
Stamps Cashier Configuration 0413-2017 Daniel Powell No 01/16/2018 2017-PR-287
Stamps Cashier Reconfiguration 0413-2017 Daniel Powell No 01/16/2018 2017-PR-305
Advising Corridor Modifications 0129-2018 Jennifer Disotell No 01/16/2018 2018-PR-001
IDEaS Renovation-FA 0392-2017 Maria Ceballos No 01/16/2018 2018-PR-005
Daniel Lab Elevator Renovation 0328-2015 Bill Oswell Yes 01/16/2018 2018-PR-009
Crosland Tower-Crane Lift Plan C0146-2014 Gary Petherick No 01/16/2018 2018-PR-015
Whitehead Joseph B. Student Health Center D413-2017 Daniel Powell No 01/12/2018 2017-PR-286
Bobby Dodd Stadium Football Locker Room Reno 2018-0050 Lindsey Cottingham Yes 01/12/2018 2017-PR-296
J-235 Price Gilbert Crosland Tower Renewal Gary Petherick No 01/09/2018 2017-PR-273
J-235 Price Gilbert Crosland Tower Renewal Gary Petherick No 01/05/2018 2017-PR-272
The Living Building at Georgia Tech John Duconge No 01/05/2018 2017-PR-282
Montgomery Knight / J. Oefelein Lab Renovation Maria Ceballos No 01/04/2018 2017-PR-284
Paper Tricentennial Front Door ADA Access/ADA Parking 2017-CP-275 Amber Chellis-Omedo No 01/02/2018 2017-PR-275
Roe Stamps Field at CRC Spencer Sheffield No 12/21/2017 2017-PR-240
Mechatronics Lab College of Computing Bill Oswell No 12/21/2017 2017-PR-260
ESM Fenella Bryant No 12/21/2017 2017-PR-262
GLC Refresh of 334, 335 Allison Gerstung No 12/21/2017 2017-PR-271
U A Whitaker Bill Oswell No 12/19/2017 2017-PR-243
Highland Bakery Conference Room Acoustical Upgrades Liz Punch No 12/19/2017 2017-PR-281
College of Business No 12/12/2017 2017-PR-236
TSRB GT Ideas 0392-2017 Maria Del Mar Ceballos No 10/30/2017 2017-PR-252
C of C Ground Floor Robotics IRN Phase I Buildout C0229-2017 Bill Oswell No 06/09/2017 2017-PR-069
EBB Takayama Lab Renovation 0110-2017 Maria Del Mar Ceballos Yes 06/09/2017 2017-PR-095
EBB 2nd Floor Hallway Door Relocation CEST-134-2017 Maria Ceballos No 06/09/2017 2017-PR-102
Office of Legal Affairs-Phase 2 0288-2016 No 06/09/2017 2017-PR-107
Gas Service for Emergency Generators 0280-2015 Greg Spiro No 04/28/2017 2017-PR-082
Alumni House Roof Renovation [FA] 0163-2016 No 04/28/2017 2017-PR-083
Delta Chi Fraternity Addition N/A No 04/26/2017 2017-PR-079
TSRB 2nd & 3rd Floor Renovations [FS] 0236-2017 Liz Punch No 04/26/2017 2017-PR-080
TSRB 2nd & 3rd Floor Renovations [FA] 0236-2017 Liz Punch No 04/26/2017 2017-PR-081
Office Build-Out for Cubicles 165A, 165B 0157-2017 Elvia Lam No 04/25/2017 2017-PR-066
Alumni House Roof Renovation [FS] 0163-2016 Jennifer Disotell No 04/25/2017 2017-PR-070
North Ave Chiller #2 Replacement 0147-2017 Spencer Sheffield No 04/25/2017 2017-PR-072
TSRB Microwave Chamber Demolition 0247-2017 Liz Punch No 04/25/2017 2017-PR-073
J. Allen Couch Restroom Renovation 0203-2017 Mitchell Shelton No 04/25/2017 2017-PR-075
O'Keefe Bldg. Renovation - Fire Protection DWGS C0102-2015 Carla Barbour No 04/25/2017 2017-PR-078
Boggs Renovation of EPR Lab [FA] 0079-2017 Ngugi Mathu Yes 04/24/2017 2017-PR-077
ERP Temporary Use 0263-2017 Liz Punch Yes 04/14/2017 2017-PR-076
ERP Swing Space Renovation (Ph. I) 0263-2017 Liz Punch No 03/30/2017 2017-PR-071
Curran Additional Parking Spaces Top Deck 0120-2015 Spencer Sheffield No 03/28/2017 2017-PR-058
MS&E Silva Lab Renovations [FS] 0057-2017 Kynthia Gaines No 03/28/2017 2017-PR-060
MS&E Silva Lab Renovations [FA] 0057-2017 Kynthia Gaines No 03/28/2017 2017-PR-061
TSRB 2nd & 3rd Floor Office Modifications 0235-2017 Liz Punch No 03/28/2017 2017-PR-062
Center Street Apt. Wireless Connectivity Upgrade 0275-2017 Spencer Sheffield No 03/28/2017 2017-PR-063
IBB Agarwal Lab Renovation 0041-2017 Maria Del Mar Ceballos No 03/24/2017 2017-PR-049
O'Keefe Fire Alarm Replacement 0204-2016 Carla Barbour Yes 03/22/2017 2017-PR-006
CoC Data Room Expansion [CP] 0091-2016 Kynthia Gaines No 03/22/2017 2017-PR-051
CoC Data Room Expansion [FS] 0091-2016 Kynthia Gaines No 03/22/2017 2017-PR-052
CoC Data Room Expansion [FA] 0091-2016 Kynthia Gaines No 03/22/2017 2017-PR-054
Paper Tricentennial Additional Ventilation & Boiler Room 0223-2017 Sam Dahdah No 03/22/2017 2017-PR-055
Curran Parking Deck Living Learning Center 0340-2016 Daniel Powell No 03/22/2017 2017-PR-057
Van Leer Robotarium 0280-2016 Corey Pressley No 03/22/2017 2017-PR-065
EBB Garg Lab Renovation 4147, 4149, 4110E/F 0071-2017 Maria Del Mar Ceballos No 03/17/2017 2017-PR-012
Paper Tricentennial Replace Boiler #2 223-2017 Sam Dahdah No 03/17/2017 2017-PR-047
West Campus Dining Commons 0268-2015 Kim Wilson No 03/16/2017 2017-PR-045
Swann Suite 116 & Room 112A 0221-2017 Maria Del Mar Ceballos No 03/16/2017 2017-PR-048
Van Leer Robotarium 0280-2016 Bill Oswell No 03/13/2017 2017-PR-046
Student Center Parking Deck Lighting Retrofit 0021-2017 Malte Weiland No 03/09/2017 2017-PR-044
O'Keefe Reno. (Page Addendums to Consolidated 100% CDs) C0102-2015 Carla Barbour Yes 03/09/2017 2017-PR-050
C of C Ground Floor Robotics IRN Phase 1 Demolition C0229-2017 Bill Oswell No 02/28/2017 2017-PR-041
Centergy One EII 3rd Floor Renovation CEST-86-2017 Jennifer Disotell No 02/27/2017 2017-PR-043
Blair Brettmann/Meilin Liu Lab Renovation 0028/58-2017 Ngugi Mathu No 02/21/2017 2016-PR-299
Bunger Henry DGMS and Fire Alarm Upgrades BID LEVEL CEST-96-2017 Greg Spiro No 02/21/2017 2017-PR-038
Tech Tower Fire Alarm Upgrade [As-Builts] C017-2015 Fenella Bryant No 02/21/2017 2017-PR-039
Paper Tricentennial Building Boiler Room Ventilation 223-2017 Sam Dahdah No 02/21/2017 2017-PR-040
O'Keefe Bldg. Renovation (100% CDs) C0102-2015 Carla Barbour No 02/20/2017 2017-PR-011
Tech Tower EVPR / Provost Offices 0133-2017 Liz Punch No 02/20/2017 2017-PR-033
MS&E Gutekunst Lab [FA] 0005-2017 Kynthia Gaines No 02/20/2017 2017-PR-035
MS&E Gutekunst Lab [FS] 0005-2017 Kynthia Gaines No 02/20/2017 2017-PR-036
Pettit MIRC Elevator Renovation 100-2015 Bill Oswell No 02/17/2017 2017-PR-029
CRB 679 Closed Room 0306-2016 Carl Beasley No 02/17/2017 2017-PR-032
North Ave Apts North Parking Garage Lighting Retrofit 0016-2017 Malte Weiland No 02/16/2017 2017-PR-024
Tech Tower Ground Level Corridor [FS] 0297-2015 Liz Punch No 02/16/2017 2017-PR-025
Tech Tower Ground Level Corridor [FA] 0297-2015 Liz Punch No 02/16/2017 2017-PR-026
Tech Tower EVPR & Provost & Suite Phase I [FS] 0133-2017 Liz Punch No 02/16/2017 2017-PR-027
Tech Tower Registrar Suite Phase I [FA] 0085-2017 Liz Punch No 02/15/2017 2017-PR-018
Tech Tower Registrar Suite Phase I [FS] 0085-2017 Liz Punch No 02/15/2017 2017-PR-019
GTAPS Entry Door Replacement 0289-2016 Liz Punch No 02/15/2017 2017-PR-020
GTRI Advanced Manufacturing N/A No 02/15/2017 2017-PR-022
GTRI CRB 5th Floor Project 1577 Fire Alarm CO347-2016 Bill Oswell No 02/15/2017 2017-PR-023
Gutekunst Lab 0005-2017 Ngugi Mathu No 02/14/2017 2016-PR-296
EBB Labs 5110, 5151, 5149 Maria Del Mar Ceballos No 02/14/2017 2017-PR-001
General Campus Bike Rack Installation TBD Jerry Young No 02/14/2017 2017-PR-017
Price Gilbert/Crosland Tower Component Change Order #1 C0146-2014 Gary Petherick No 02/13/2017 2017-PR-034
4th Street Apartments Fire Alarm Upgrade 0192 Spencer Sheffield No 02/09/2017 2017-PR-003
Van Leer E283 Renovation - FY17 Classroom Improvement 0052-2017 Jennifer Disotell No 02/09/2017 2017-PR-005
Ben T. Zin Combustion Lab DGMS and Fire Alarm Upgrades 0052-2015 Greg Spiro No 02/09/2017 2017-PR-010
Centergy One EII 3rd Floor Renovation CEST-86-2017 Jennifer Disotell No 02/09/2017 2017-PR-037
O'Keefe A1 Roof Replacement C0102-2015 Carla Barbour No 02/08/2017 2017-PR-004
West Campus Dining Commons 0268-2015 Kim Wilson No 02/06/2017 2016-PR-298
Bunger Henry Solar Roof Array 0062-2017 Ngugi Mathu No 02/06/2017 2017-PR-002
Cherry Emerson Diggle Laboratory Renovation 0025-2017 Corey Pressley No 02/06/2017 2017-PR-016
DM Smith Fire Alarm Upgrade [As-Builts] 0066-2015 Kynthia Gaines No 02/02/2017 2016-PR-292
O'Keefe Building Renovation Demo C0102-2015 No 02/02/2017 2016-PR-294
Pettit Agarwai Lab Reno 0041-2017 Maria Del Mar Ceballos No 02/01/2017 2016-PR-276
North Ave East Chiller #2 Replacement 147-2017 Spencer Sheffield No 01/11/2017 2016-PR-291
Whitaker Lab Reno for Dr. Hollister 0026-2017 Bill Oswell No 12/12/2016 2016-PR-280
Whitaker Install Boiler for Autoclave 0198-2016 Sam Dahdah No 11/21/2016 2016-PR-261
Whitaker Lab Reno for Dr. Robles 0002-2017 Bill Oswell Yes 11/17/2016 2016-PR-262
Stanchion Installation 0013-2017 Maria Ceballos No 08/08/2016 2016-PR-193
Campus Services Warehouse 0011-2016 Nic Palfrey No 07/28/2016 2016-PR-181
Structural Lab HPEPL Arcjet 0360-2016 Greg Spiro No 06/28/2016 2016-PR-160
Weber Building II/SST3 199-2016 Bill Oswell No 05/09/2016 2016-PR-102
Hefner-Armstrong Hall Stairs Design 0165-2016 Daniel Powell No 05/04/2016 2016-PR-101
Weber Auditoriums 1&2 Classroom Improvement [CP] 0099-2106 Nic Palfrey No 04/29/2016 2016-PR-093
CRC Relocate Water Curtain Sprinklers Spencer Sheffield No 04/29/2016 2016-PR-094
Ferst Center Galleries Renovation [FS] [EXPEDITE] 0006-2016 Nic Palfrey Yes 04/26/2016 2016-PR-098
LPHE Selective Work on all Floors (Elevator) C017-2015 David Bowman No 04/11/2016 2016-PR-045
Centennial Research Building GTRI CRB 5th Floor Project 1577 0147-2015 Bill Oswell No 04/11/2016 2016-PR-061
ES&T VWR - Flammable Solvent/Storage Exhaust CEST 46-2015 Sam Dahdah No 04/11/2016 2016-PR-064
8th Street Water Line Infrastructure 0352 2015 Daniel Powell Yes 03/28/2016 2016-PR-041
Boggs Lecture Halls B5 B9 & Lobby Redesign c-0012-2016 No 03/25/2016 2016-PR-033
College of Business 3rd Floor Fire Alarm 0038-2016 Bill Oswell No 03/21/2016 2016-PR-020
GLC Chiller Replacement 0100-2016 No 03/21/2016 2016-PR-024
Lettie Pate Whitehead Evans C017-2015 David Bowman Yes 03/07/2016 2015-PR-265
CRC Deck W10 Lighting Upgrade 0028-2016 Malte Weiland No 03/07/2016 2016-PR-013
CRA Post Doctorate and Graduate Student Offices [FA] 0208-2015 Liz Punch No 03/07/2016 2016-PR-016
Boggs CRA Post Doctorate and Graduate Offices 0208-2015 Liz Punch Yes 03/07/2016 2016-PR-055
Holland 480V Upgrade 0287-2015 David Chandler No 01/21/2016 2015-PR-227
Dr.Emelianor Laboratory Renovation 0014-2016 Nic Palfrey No 01/21/2016 2015-PR-230
Fume Hood for Lab 248 - Pettit Building 0013-2015 Sam Dahdah No 12/17/2015 2015-PR-190
Loomis/ New EH&S Relocation C049 David Bowman Yes 12/17/2015 2015-PR-252
Atlantic Steam Line Replacement South C055 2015 Don Alexander No 12/17/2015 2015-PR-254
JS Coon Gorman Lab [FA] 0303-2015 Bill Oswell Yes 12/16/2015 2015-PR-229
Baker Building Equipment Relocations GTRI-1599 Bill Oswell No 12/15/2015 2015-PR-192
GTRI Research Building (south) Renovations 430 Tenth Street 0167-2015 Bill Oswell No 12/15/2015 2015-PR-193
Baker Building Room 348 Renovation 0017-2016 Carl Beasley No 12/15/2015 2015-PR-194
Engineered Biosystems Bldg EBB/CHOA Space C396-2012 John Duconge No 12/14/2015 2015-PR-178
Tech Way NARA Gas Storage 173-2014 Greg Spiro No 12/14/2015 2015-PR-191
Center for Sustainable Business Sprinkler 0131-2015 Jennifer Disotell Yes 12/14/2015 2015-PR-241
Center for Sustainable Business 0131-2016 Jennifer Disotell Yes 12/14/2015 2015-PR-261
GTRI 1581 South Renovations 167-2015 Bill Oswell No 12/11/2015 2015-PR-208
UA Whitaker Kemp/Hammond Lab [Resubmittal] 0206-2015 Bill Oswell Yes 12/11/2015 2015-PR-250
Price Gilbert Library Relocate Homer Rice Classroom 0350-2015 Gary Petherick Yes 12/11/2015 2015-PR-253
Student Success Center Fire Alarm Upgrades 0275-2015 Brian Clarke No 12/08/2015 2015-PR-183
512 Means St AMAC-CATEA 0114-2016 Yes 12/04/2015 2015-PR-232
Love Ceiling 001 0278-2015 Liz Punch Yes 12/01/2015 2015-PR-243
Love Manufacturing Bldg 3rd Floor 0236-2015 Yes 11/23/2015 2015-PR-213
GameStop AT&T Mobility Kim Wilson Yes 11/23/2015 2015-PR-238
Bunger Henry Varenburg SEM lab 0276-2015 No 11/17/2015 2015-PR-198
MaRC Fire Alarm Upgrades 0274-2015 Brian Clarke No 11/11/2015 2015-PR-185
Callaway Manufacturing Research Center Dr. Ames Lab Renovation 0207-2015 Bill Oswell No 11/10/2015 2015-PR-170
Architecture West Room 254 0026-2015 Nic Palfrey No 11/10/2015 2015-PR-172
Ceiling 011 Love Building 0278-2015 Elvia Lam No 11/10/2015 2015-PR-180
North Ave. Apartments South Data Cabling 0029-2016 Spencer Sheffield No 11/09/2015 2015-PR-174
East/ West Connector Pedestrian Bridge [CP] 0281-2013 Jerry Young No 11/09/2015 2015-PR-211
Bunger Henry Varenburg SEM lab 0276-2015 No 11/04/2015 2015-PR-201
Engineered Biosystems Building Han Laboratory [CP][EXPEDITE] 0049-2016 Nic Palfrey Yes 11/04/2015 2015-PR-225
A. French Basement & 2nd Floor Renovation 0054-2015 Elvia Lam No 11/03/2015 2015-PR-187
MRDC 3317 0203-2015 No 10/30/2015 2015-PR-118
AMAC- CATEA N/A Yes 10/22/2015 2015-PR-214
LPWE Administrative Building Reno C017-2015 David Bowman No 10/21/2015 2015-PR-182
Weber SSTC #3 Fire Alarm Upgrades 0065-2015 Brian Clarke No 10/12/2015 2015-PR-196
Gilbert Library - Relocate Homer Rice Center 0350-2015 Gary Petherick No 10/12/2015 2015-PR-207
CNES Process Infrastructure C000-2016 Gary Petherick No 09/21/2015 2015-PR-139
GTRI 1581 Research Building South Renovations 0167-2015 Bill Oswell No 09/21/2015 2015-PR-157
U.A. Whitaker Lab Office Renovations for Dr.Kemp and Dr.Hammond 206-2015 Bill Oswell No 09/21/2015 2015-PR-162
Bunger Henry Varenburg SEM Lab 0276-2015 Cary Ogletree No 09/21/2015 2015-PR-165
Economic Development Building Department of Internal Auditing 3rd Floor 0229-2015 Liz Punch No 09/21/2015 2015-PR-171
Economic Building Department of Internal Auditing 0229-2015 Liz Punch No 09/21/2015 2015-PR-179
French Building Basement Renovation 0353-2015 David Bowman No 09/21/2015 2015-PR-181
EHS Relocation C049-2014 David Bowman No 09/18/2015 2015-PR-152
Marcus Nanotechnology Building Phases V & VI C002-2015 John Duconge No 09/14/2015 2015-PR-154
GLC Verizon Cell Site CEST-95-2015 Bill Lawrence No 08/25/2015 2015-PR-141
Verizon Cell Site at Groseclose CEST-83-2015 Bill Lawrence No 08/25/2015 2015-PR-142
Verizon Cell Site at College of Computing CEST-76-2015 No 08/25/2015 2015-PR-143
Crecine Verzion Cell Site CEST-79-2015 Bill Lawrence No 08/25/2015 2015-PR-144
Savant Building Registrar Swing Space 0353-2015 David Bowman Yes 08/24/2015 2015-PR-175
Economic Development Building - Department of Internal Auditing 3rd floor 0229-2015 Bill Oswell No 08/13/2015 2015-PR-135
GTRI 1609 CRB 5th Floor Open Plan Office 212-2015 Carl Beasley No 08/13/2015 2015-PR-167
GTRI 1581 Research Building South Renovations 0167-2015 Bill Oswell No 08/13/2015 2015-PR-168
Microelectronics College of Engineering Swing Space 0353-2015 Rod Moore Yes 08/10/2015 2015-PR-173
EBB/CHOA Space C396-2012 John Duconge Yes 07/31/2015 2015-PR-161
College of Computing RM 108 118-2015 No 07/23/2015 2015-PR-136
Centergy One ATDC Office Renovation 122-2015 Bill Oswell No 07/22/2015 2015-PR-130
MRDC 3317 0203-2015 No 07/21/2015 2015-PR-131
Smithgall Student Services 2nd floor counseling offices Renovation 0310-2015 Liz Punch Yes 07/21/2015 2015-PR-132
575 14th Street Dr.Cope Robotics & Dr.Chang 0177-2015 Fenella Bryant No 07/09/2015 2015-PR-126
Ray's Pizza- Tech Square Storage Area 0037-2015 Spencer Sheffield No 07/09/2015 2015-PR-127
Dr.Cope 177-2015 No 07/09/2015 2015-PR-128
U.A. Whitaker BME Conference Room 3115 0150-2015 No 07/09/2015 2015-PR-129
Dr Jangs Office & Dr.Sponberg Windtunnel 090-2015 No 07/08/2015 2015-PR-120
760 Spring St 0234-2015 Liz Punch No 07/07/2015 2015-PR-106
760 Spring St Office Renovations 0234-2015 Liz Punch No 07/07/2015 2015-PR-107
Hefner Dorm Build Out 1921353 Steve Lail No 07/07/2015 2015-PR-108
A. French Building 1st Floor Renovation 0054-2015 Elvia Lam No 07/07/2015 2015-PR-109
Dr. Jang Office and Dr. Sponberg Wind Tunnel 0085-2015 No 07/07/2015 2015-PR-110
Verizon Cell Site GLC CEST-95-2015 No 07/07/2015 2015-PR-112
LPWE Building - Site Infrastructure 292-2015 David Bowman No 07/07/2015 2015-PR-113
Carnegie President's Conference Room Renovation 054-2014 Fenella Bryant No 07/07/2015 2015-PR-114
Nano Phase V & VI Floors 1 C002-2015 No 07/07/2015 2015-PR-115
Pool Filter room - Acid Feed System 261-2013 Brian Clarke No 07/07/2015 2015-PR-116
Center for Advanced Brain Imaging - Rahner Lab Renovation 136-2015 Jennifer Disotell No 07/07/2015 2015-PR-117
Marcus Nanotechnology Building Phases V & VI C002-2015 John Duconge No 07/07/2015 2015-PR-122
Smithgall First Floor Modifications to Rooms 117 CLAS-2015 No 07/02/2015 2015-PR-137
Wardlaw Building Verizon Stadium DAS Head End CEST-111-2015 Bill Lawrence No 07/02/2015 2015-PR-140
Groseclose Computer Lab 0093-2015 Liz Punch No 06/01/2015 2015-PR-104
GTRI CRB 5th Floor Project 1577 0147-2015 No 05/25/2015 2015-PR-057
Verizon Cell Site College of Computing CEST-76-2015 No 05/25/2015 2015-PR-089
Verizon Cell Site Crecine CEST-79-2015 Bill Lawrence No 05/25/2015 2015-PR-090
Verizon Cell Site Groseclose CEST-83-2015 Bill Lawrence No 05/25/2015 2015-PR-091
Caddell Building Landscape 0050-2015 Jerry Young No 05/25/2015 2015-PR-092
Boggs Yunker Renovation 0027-2015 No 05/25/2015 2015-PR-093
Howey Physics Mourigal Renovation 0028-2015 No 05/25/2015 2015-PR-094
Whitaker Building Bio-Medical Engineering Conference Room 0150-2015 Nic Palfrey No 05/25/2015 2015-PR-095
Stamp Field Bleachers and Storage 0231-2014 Jerry Young No 05/25/2015 2015-PR-096
Site I75/85 Planting Buffer LAND - 2015 Jerry Young No 05/25/2015 2015-PR-097
EHS Relocation C049-2014 Gerald Shumake No 05/25/2015 2015-PR-098
Freeman Hall GTCN Conference and Library Renovation N/A Steve Lail No 05/25/2015 2015-PR-099
575 14th Street Dr. Jang Office & Dr. Sponberg's Wind Tunnel 0090-2015 No 05/25/2015 2015-PR-101
Whitaker Building Bio-Medical Engineering Conference Room 0150-2015 Nic Palfrey No 05/25/2015 2015-PR-102
Student Center West Entering Parking Area 2 0233-2013 Jerry Young No 05/25/2015 2015-PR-103
Carnegie President's Conference Room Renovation 0054-2014 Fenella Bryant No 05/18/2015 2015-PR-080
Boggs Cadonati Renovation 0146-2015 No 05/14/2015 2015-PR-075
Boggs Cadonati Renovation 0146-2015 No 05/14/2015 2015-PR-076
Boggs Yunker Renovation 0027-2015 No 05/14/2015 2015-PR-078
Howey Physics Door Upgrade 145-2013 Nic Palfrey No 05/14/2015 2015-PR-079
575 14th Street Dr. Cope Robotics and Dr. Chang Labs 0183-2015 No 05/13/2015 2015-PR-074
811 Marietta Street Fire Alarm Upgrades 0069-2015 Brian Clarke No 05/12/2015 2015-PR-066
781 Marietta Street Ivan Allen (Habersham) FA Upgrades 0068-2015 Brian Clarke No 05/12/2015 2015-PR-067
Dr. Jang's Office & Dr. Sponberg Wind Tunnel 0085-2015 No 05/12/2015 2015-PR-069
Global Learning Center Division of Room 115 Into Two Studios 0170-2015 Nic Palfrey No 05/12/2015 2015-PR-070
Klaus Adv. Comp. Building Unisex Restroom & Wellness Room 0175-2014 Elvia Lam No 05/11/2015 2015-PR-062
430 10th Street Boiler Additions 041-2015 Greg Spiro No 05/11/2015 2015-PR-063
A. French Building 1st Floor Renovation 0054-2015 Elvia Lam No 05/01/2015 2015-PR-051
Klaus Parking Deck Light Replacement 0090-2012 Spencer Sheffield No 05/01/2015 2015-PR-056
Tech Way Diesel Generator Installation 0211-2015 Greg Spiro No 04/30/2015 2015-PR-052
CQGRD & CIS Offices 0234-2015 Liz Punch Yes 04/28/2015 2015-PR-068
GTRI 1605 CRB ACL Director's Space 157-2015 Bill Oswell No 04/22/2015 2015-PR-047
MARC Lab 421 Sprinkler Relocation N/G Federico Del Risco No 04/22/2015 2015-PR-077
Woodruff Parking Lot Improvements 0039-2015 Spencer Sheffield No 04/15/2015 2015-PR-048
Cobb County Research Building 2 Lab 128 117-2015 Bill Oswell No 04/15/2015 2015-PR-049
1581 GTRI 430 South N/A Bill Oswell No 04/15/2015 2015-PR-050
Armstrong Honors Dorm Build Out N/A Steve Lail No 04/13/2015 2015-PR-054
Coliseum Annex Egress Improvements and Fire Alarm 273-2014 Brian Clarke No 04/03/2015 2015-PR-041
A French Ramp Reconstruction 0189-2015 No 04/03/2015 2015-PR-043
FAB Building Coliseum Annex Fire Alarm Design 273-2014 Brian Clarke No 04/03/2015 2015-PR-044
Luck Building Coliseum Annex Fire Alarm Design 273-2014 Brian Clarke No 04/03/2015 2015-PR-045
College of Computing (118-2015) First Floor Rooms 0118-2015 No 04/03/2015 2015-PR-046
North Ave Apartments West Wireless Upgrade 0221-2015 Bill Lawrence No 04/02/2015 2015-PR-031
Techway Doors & Card Readers 0112-2015 No 04/02/2015 2015-PR-034
Center for Advanced Brain Imaging 136-2015 Bill Oswell No 04/02/2015 2015-PR-035
Wenn Student Center New ADA Store Front Door 0114-2015 Spencer Sheffield No 04/02/2015 2015-PR-038
Nano Phase V & VI Floors 1 C002-2015 No 04/02/2015 2015-PR-039
U.A. Whitaker BME Conference Room 0150-2015 Nic Palfrey No 04/02/2015 2015-PR-040
Boggs Cadonati Renovation 0146-2015 No 03/31/2015 2015-PR-037
General Campus - Harrison Square Reconstruction 180-2015 Gerald Shumake No 03/30/2015 2015-PR-027
811 Marietta Street Fire Alarm Upgrades 069-2015 Brian Clarke No 03/30/2015 2015-PR-032
781 Marietta Street Fire Alarm Upgrades 068-2015 Brian Clarke No 03/30/2015 2015-PR-036
Howey Mourigal Renovation 0028-2015 No 03/26/2015 2015-PR-008
Boggs Yunker Renovation 0027-2015 No 03/26/2015 2015-PR-009
575 14th Street Dr. Jang Office & Dr. Sponberg's Wind Tunnel 0085-2015 No 03/26/2015 2015-PR-011
Weber- SSTC #3 Fire Alarm Upgrades 065-2015 Brian Clarke No 03/26/2015 2015-PR-028
DM Smith Fire Alarm Upgrades 066-2015 Brian Clarke No 03/26/2015 2015-PR-029
Daniel Laboratory Fire Alarm Upgrades 061-2015 Brian Clarke No 03/26/2015 2015-PR-030
Clough ULC - Starbuck's Storage Rooms 0129-2015 Spencer Sheffield No 03/26/2015 2015-PR-033
Howey Physics Goldman Office Renovation 0137-2015 No 03/12/2015 2015-PR-018
Mourigal Office Renovation 0152-2015 No 03/12/2015 2015-PR-019
Caddell Architecture Annex Fire line Infrastructure C112-2013 Jennifer Disotell No 03/12/2015 2015-PR-020
Howey Physics Building Fire Doors 145-5-2013 Nic Palfrey Yes 03/12/2015 2015-PR-022
Bill Moore Student Success Center Domestic Water Renovation N/A Tony Gonzalez No 02/27/2015 2015-PR-012
Howey Physics Emeritus Faculty Office and Data Closet 103-2015 No 02/27/2015 2015-PR-015
Groseclose Montreuil Logistics Lab 093-2015 Liz Punch No 02/27/2015 2015-PR-016
OIT Parking Lot Repavement 0038-2015 Spencer Sheffield No 02/18/2015 2015-PR-013
Howey Physics Emeritus Faculty Office and Data Closet 103-2015 Yes 02/18/2015 2015-PR-017
Carnegie President's Conference Room 054-2014 David Bowman No 02/04/2015 2015-PR-006
Groseclose Montreuil Lab 0093-2015 Liz Punch No 01/30/2015 2015-PR-005
Scheller college of Business Analytics Center 2015-0107 Nic Palfrey No 01/28/2015 2015-PR-004
GTRI 1602 5th Floor Door Addition 0158-2015 Bill Oswell No 01/27/2015 2015-PR-003
Research Administration Building 2015-0094 Nic Palfrey No 01/20/2015 2015-PR-001
781 Marietta Fire Alarm Upgrade 0068-2015 Brian Clarke No 2015-PR-064
811 Marietta Fire Alarm Upgrade 0069-2015 Brian Clarke No 2015-PR-065
Smithgall Student Services Building Roof Replacement MRR900112750B Jennifer Disotell No 2015-PR-073
Hefner Honors Dorm Build Out N/A Steve Lail No 2015-PR-100
Klaus Advance Computing Bldg Unisex Restroom 0175-2014 Elvia Lam No 2015-PR-105
Rahner Lab Renovation 136-2015 Bill Oswell No 2015-PR-119
Collins Gate Reconstruction 0253-2015 Jerry Young No 2015-PR-121
GTRI Machine Shop Laser Cutter Addition 253687 Bill Oswell No 2015-PR-138
A. French Building 0054-2015 No 2015-PR-147
Wardlaw Parking Level 2 CEST-111-2015 No 2015-PR-148
Smithgall Couseling Offices Student Services 0310-2015 Liz Punch No 2015-PR-149
Smithgall Couseling Offices Student Services 0310-2015 Liz Punch No 2015-PR-150
GTRI RCRF Project 1604 117-2015 Carl Beasley No 2015-PR-151
Holland Plant Basement Stair Addition 0184-2015 Elvia Lam No 2015-PR-153
Smithgall First Floor Modifications to Rooms 117 CLAS-2015 No 2015-PR-155
Smithgall First Floor Modifications to Rooms 117 CLAS-2015 No 2015-PR-156
MRDC Corridor Addition 0343-2015 Bill Oswell No 2015-PR-159
Smithgall First Floor Modifications to Rooms 117 CLAS-2015 No 2015-PR-160
Techway Glexer Wind Tunnel 0230-2015 No 2015-PR-166
Ray's Pizza Storage 0037-2015 Spencer Sheffield No 2015-PR-169
J.S. Coon Renovation for Gorman Lab 303-2015 No 2015-PR-186
Bill Moore Student Success Center Fire Alarm Replacement 0315-2015 Brian Clarke No 2015-PR-188
Marcus Nanotech Phases V & VI 002-2015 John Duconge No 2015-PR-189
Daniel Lab Fire Alarm Upgrades 0061-2015 Brian Clarke No 2015-PR-195
Boggs El-Sayed Renovation 0048-2016 No 2015-PR-197
Centergy One ATDC @ Georgia Tech 122-2015 Jennifer Disotell No 2015-PR-199
Centergy One ATDC @ Georgia Tech 122-2015 Jennifer Disotell No 2015-PR-200
Campus Rec. Center 0042-2016 Kim Wilson No 2015-PR-202
Campus Services Warehouse 0011-2016 Kim Wilson No 2015-PR-203
Savant Registrar Swing Space 0353-2015 David Bowman Yes 2015-PR-204
Ray Anderson Center for Sustainable 0131-2015 Nic Palfrey No 2015-PR-205
UA Whitaker Kemp/Hammond Lab Renovations 0206-2015 Bill Oswell No 2015-PR-206
Student Center Sodexo Office Renovation [CP] 0331-2015 Spencer Sheffield Yes 2015-PR-209
EBB Level 0 Core Labs [CP] 0345-2015 Nic Palfrey No 2015-PR-210
Caddell Building Landscape [CP] 0050-2015 Jerry Young No 2015-PR-212
Whitaker Kemp/Hammond Lab 0206-2015 Bill Oswell No 2015-PR-215
Boggs Post Grad & PhD Student Offices 0208-2015 Nic Palfrey No 2015-PR-216
EBB Vivarium Modifications John Duconge No 2015-PR-217
EHS Relocation (Resubmittal) David Bowman Yes 2015-PR-218
LPWE Admin Building Renovation [elevator submittal] C017-2015 David Bowman No 2015-PR-220
Loomis/New EH&S Relocation C049-2014 David Bowman Yes 2015-PR-221
LPWE Admin Building Renovation C0017-2015 David Bowman No 2015-PR-222
Campus Recreation Center - Additional 2 Offices and 1 Exec Director's Office [FS] 0042-2016 Spencer Sheffield No 2015-PR-223
Campus Recreation Center - Additional 2 Offices and 1 Exec Director's Office [FA] 0042-2016 Spencer Sheffield No 2015-PR-224
JS Coon Gorman Lab 0303-2015 Bill Oswell No 2015-PR-226
14th Street Parking Lot Improvements 0059-2015 No 2015-PR-234
6th Street Parking Lot Improvements 0191-2015 No 2015-PR-235
Engineered Biosystems Building MSC Build-Out 0047-2016 Nic Palfrey No 2015-PR-236
Price Gilbert Library Archives Temp. Swing Space Room 101 C-0146-2014 Gary Petherick No 2015-PR-237
EBB Han Laboratory 0049-2016 Liz Punch Yes 2015-PR-239
EBB Han Laboratory [FS] 0049-2016 Liz Punch Yes 2015-PR-240
MRDC Metal Shop Renovation [CP] 0343-2015 Bill Oswell No 2015-PR-244
Barnes and Nobles Renovation Bill Oswell No 2015-PR-245
Skiles Classroom Improvements 0097-2016 Nic Palfrey No 2015-PR-246
Woodruff Boiler Room Sprinkler Expansion [FS] none Kim Wilson No 2015-PR-247
Scheller College of Business [CP] 0057-2016 Bill Oswell No 2015-PR-248
North Ave. East Data Cabling 0029-2016 Spencer Sheffield No 2015-PR-249
CRC Stamps Field Bleacher Installation (resubmittal) 0231-2014 Jerry Young No 2015-PR-251
GESPC Georgia Tech C0292-2104 Don Alexander No 2015-PR-255
North Ave. Apartments West (C) Data Cabling 0029-2016 Spencer Sheffield No 2015-PR-256
LPWE Admin Building Site Infrastructure 292-2015 David Bowman No 2015-PR-257
GLC Suite 437 Construction [FA] 0038-2015 Elvia Lam Yes 2015-PR-258
Centrgy ATDC Fire Sprinkler Phase B/C/D 0122-2015 Bill Oswell No 2015-PR-259
LPWE Admin Building 0017-2015 David Bowman No 2015-PR-260
UA Whitaker BME Building Resubmittal 0206-2015 Bill Oswell Yes 2015-PR-262
CoC 1st Floor Sprinkler Install 0241-2015 Elvia Lam Yes 2015-PR-264
Gilbert Hillhouse 1st Floor Student Offices [FS] 0208-2015 Liz Punch Yes 2015-PR-266
Gilbert Hillhouse 1st Floor Student Offices [FA] 0208-2015 Liz Punch Yes 2015-PR-267
CCRF Building 5 Roof and Penthouse 0109-2016 Liz Punch No 2016-PR-001
Business of Management Undergraduate Renovation Bill Oswell No 2016-PR-003
Campus Recreation Center Stamps Field Bleacher Install HC Lift Submittal 0231-2014 Jerry Young No 2016-PR-004
CRC Stamps Field Bleacher Install Revision to Sheet A101 (Supplemental) 0231-2014 Jerry Young No 2016-PR-005
GLC Division of Room 115 - Fire Sprinkler [FS] 0170-2015 Jennifer Disotell No 2016-PR-010
GLC Division of Room 115 - Fire Alarm [FA] 0170-2015 Jennifer Disotell No 2016-PR-011
Center for Distributed Energy Power Lab (1st and 2nd Floors, Rms 119, 127, 130, 132, 139, 234, 235, 240, 243) 075-2015 Polly Patton Yes 2016-PR-014
CRC Stamps Field Bleacher Install Revision to Sheet A501 (Supplemental) 0231-2014 Jerry Young No 2016-PR-015
Library Records Center Tenant Improvements 0058-2016 Gary Petherick No 2016-PR-017
Nara Tech Way Wind Tunnel Project [FS] 0230-2015 No 2016-PR-018
College of Business 3rd Floor Sprinklers 0038-2016 Bill Oswell No 2016-PR-019
Price Gilbert Library Archives Temporary Swing Space 1st Floor Rm 101 [FA] C-0146-2014 Gary Petherick Yes 2016-PR-021
Whitaker BME Neuro Ephys Labs 3rd Floor 0348-2015 No 2016-PR-022
MS&E NMR Lab Improvements G143 and Penthouse 0088-2016 Yes 2016-PR-023
Savant Swing Space Reno [AS-BUILTS] 0353-2015 David Bowman No 2016-PR-025
Campus Services Warehouse Phase 1 Work 0011-2016 Kim Wilson No 2016-PR-026
Bunger Henry McDowell Lab [CP] 0050-2016 No 2016-PR-027
EBB Mass Spec Lab 0047-2016 Nic Palfrey No 2016-PR-028
Ferst Center For The Arts Gallery Renovation 0006-2016 Nic Palfrey Yes 2016-PR-029
EBB Mass Spec Lab 0047-2016 Nic Palfrey No 2016-PR-030
MRDC Metal Shop Renovation 0343-2015 Bill Oswell No 2016-PR-031
MRDC Metal Shop Renovation 0343-2015 Bill Oswell No 2016-PR-032
Bunger Henry Gas Lab Consultation Yes 2016-PR-035
EBB Core Labs 0345-2015 Nic Palfrey No 2016-PR-036
Woodruff Residence Hall Generator Replacement 0168 2016 Spencer Sheffield No 2016-PR-037
Board of Regents Parking Deck Condition Assessment 0064-2016 Daniel Powell No 2016-PR-040
C Emerson Rosenzweig Lab Renovations 0116-2016 Yes 2016-PR-042
Campus Rec Center Leisure Pool HVAB Replacement 0063-2-16 Brian Clarke No 2016-PR-043
Swann Elevator Replacement 100-2015 Bill Oswell No 2016-PR-044
Molecular Science and Engineering - Stas Emelianov Lab (4th Floor) 0014 2016 Nic Palfrey No 2016-PR-046
Library Records Center/1594 Marietta Blvd 0058-2016 Gary Petherick No 2016-PR-047
LPWE Admin Building Renovation C017-2015 David Bowman No 2016-PR-048
Dr. Emilianov Laboratory Fire Supression 0014-2016 Nic Palfrey No 2016-PR-050
UA Whitaker Neuro Ephys Lab 0348-2015 No 2016-PR-051
UA Whitaker Neuro Ephys. Lab - 3rd Floor 0348 2015 No 2016-PR-052
Student Success Center Fire Alarm Upgrades (entire bldg.) 0275 2015 Brian Clarke No 2016-PR-053
Campus Gas Service For Emergency Generators- Phase 1 280-2015 David Chandler No 2016-PR-054
CoC 1st Floor Sprinkler Install [As-Built] 0274-2014 Elvia Lam No 2016-PR-056
GLC Suite 437 Construction [As-Built] 0038-2016 Elvia Lam No 2016-PR-057
Carnegie Building Renovation 105-2015 Liz Punch Yes 2016-PR-058
Centennial Research Building [As-Built] 0212-2015 Bill Oswell No 2016-PR-059
Global Learning Center Retail/Building 170 Pick-Up Store at Georgia Tech [CP] Bill Oswell Yes 2016-PR-060
Library Renewal Project C0146-2014 Gary Petherick No 2016-PR-062
Bunger-Henry Specialty Gas Lab 433B 0123-2015 No 2016-PR-063
North Ave Apartments Data Cabling [CP] 0029-2016 Spencer Sheffield No 2016-PR-065
Bunger Henry McDowell Lab #413B 0123-2015 No 2016-PR-066
Baker Building Fire Alarm Replacement [FA] N/A Bill Oswell Yes 2016-PR-067
GTRI #1615 #99 Baker Building Room 347/348 0017-2016 Liz Punch Yes 2016-PR-068
828 West Peachtree CID 0246-2016 Elvia Lam Yes 2016-PR-070
CoC Elevator Replacement 100-2015 Bill Oswell Yes 2016-PR-071
Montgomery Knight Elevator Replacement MRR 100-2015 Bill Oswell Yes 2016-PR-072
FY16 Classrooms- Fire Alarm Modifications 0218 & 0230 Jennifer Disotell No 2016-PR-073
Van Leer Classroom Improvements 0219-2016 Jennifer Disotell No 2016-PR-074
Cherry Emerson Classroom Improvements 0222-2016 Jennifer Disotell No 2016-PR-075
EDB GT Foundation 0176-2016 Liz Punch Yes 2016-PR-076
General Campus Techwood Drive Streetscape 0048-2015 Jerry Young No 2016-PR-077
Bunger Henry Specialty Gas Lab 433B 0123-2015 No 2016-PR-079
Ferst Drive Streetscape (Hemphill ave to State St) 0057-2015 Jerry Young No 2016-PR-080
Wardlaw Duct Bank and Inner duct Installation 0244-2016 Glen Hickman No 2016-PR-082
#172 Scheller College of Business Return Air Modifications [CP] 0171-2016 Liz Punch No 2016-PR-083
LPWE Admin Bldg Renovation C0017-2015 Fenella Bryant Yes 2016-PR-084
GTRI Boiler Additions 0230-2015 Greg Spiro No 2016-PR-085
FY16 Classrooms MRDC & Love No 2016-PR-086
Smith IAQ Project 0119-2016 Spencer Sheffield No 2016-PR-087
CNES TKIS Kiln Installation 2016-PRF-1841 Greg Spiro No 2016-PR-088
Bunger Henry McDowell Lab 413B [FS] 0050-2015 No 2016-PR-089
Groseclose Annex Renovations 0273-2016 Fenella Bryant No 2016-PR-090
Carnegie Renovation 0105-2015 Liz Punch Yes 2016-PR-091
IBB North Interconnect UPS 194-2016 David Chandler No 2016-PR-092
Campus Services Warehouse Phase I D011-2016 Kim Wilson No 2016-PR-095
Human Resources Restroom Renovations 0134-2016 Elvia Lam No 2016-PR-097
NEETRAC High Voltage Test Lab 0282-2016 Maria Ceballos No 2016-PR-099
Harris Residence Hall Fire Alarm Upgrade 0178-2016 Spencer Sheffield No 2016-PR-100
4th Street & Center Street Apartments 0192-2016 Spencer Sheffield No 2016-PR-103
Lettie Pate Whitehead Evans C017-2015 Fenella Bryant Yes 2016-PR-104
SEB FY 16 Classroom - Fire Alarm Modification 0213-2016 Yes 2016-PR-106
West Campus Dining Commons 50% 0268-2015 Kim Wilson No 2016-PR-107
West Campus Dining Commons Foundation 0268-2015 Kim Wilson No 2016-PR-108
College of Computing - Data Room Expansion 0091-2016 Brian Clarke No 2016-PR-109
828 West Peachtree - 2nd Floor 0246-2016 Elvia Lam Yes 2016-PR-110
Joseph B Whitehead Health Services - Women's Center Renovation 0256-2016 Spencer Sheffield Yes 2016-PR-112
NMR Lab Improvements 0116 No 2016-PR-113
West Campus Dining Commons 0268-2015 Kim Wilson Yes 2016-PR-114
NARA Inert and Flammable Gas Storage 173-2014 No 2016-PR-115
Bunger Henry - Distributed Energy Power Lab Renovation 0075-2015 Polly Patton No 2016-PR-116
Bunger Henry - Distributed Energy Power Lab Renovation 0075-2015 Polly Patton No 2016-PR-117
Leisure Pool HVAC and Water Treatment 0063-2016 Brian Clarke No 2016-PR-118
EHS Relocation C049-2014 Gerald Shumake No 2016-PR-119
Amazon Pickup Station No 2016-PR-120
Amazon Pickup Station No 2016-PR-121
Steam Manhole Repair G9-2 G11-6 0268-2016 Don Alexander No 2016-PR-122
FY16 Classroom Improvements Fire Alarm Modification 0225-2016 Yes 2016-PR-123
FY16 Classroom Improvements 0214-2016 No 2016-PR-125
Van Leer FY16 Class Improvements [FA] 02192016 No 2016-PR-126
Parker Lab Renovation 0151 2016 No 2016-PR-127
Campus Services Warehouse Permit Components 0011 2016 Kim Wilson No 2016-PR-128
Robert Ferst Center for the Arts 006-2016 Nic Palfrey Yes 2016-PR-129
E70 Deck LED Lighting Retrofit 2016 0032 Malte Weiland No 2016-PR-130
MRC Fire Alarm Upgrade 0274-2015 Brian Clarke No 2016-PR-131
Smithgall Student Services Suite 204 Renovation Demolition 0231-2016 Yes 2016-PR-132
Howey Physics Classroom Improvements L5 0217-2016 Elvia Lam No 2016-PR-133
Russenweig Lab Renovation 0166 2016 No 2016-PR-134
828 W. Peachtree 2nd Floor [FS] 0246-2016 Elvia Lam No 2016-PR-135
College of Computing Chemistry Annex Renovation 0036-2016 Elvia Lam No 2016-PR-136
Smithgall Office Renovations 0231 2016 Liz Punch No 2016-PR-137
Smithgall Office Renovations [FS] 0231 2016 Liz Punch No 2016-PR-138
Gilbert Hillhouse Boggs Bldg. Instructional Space Reno. C0012-2016 Nic Palfrey No 2016-PR-139
Gilbert Hillhouse Boggs Bldg. Instructional Space Reno. [FS] C0012-2016 Nic Palfrey No 2016-PR-140
West Campus Dining Commons 0268 2015 Kim Wilson No 2016-PR-141
EBB Vivarium Modifications 0025-2016 Carla Barbour No 2016-PR-142
8th Street West Apartments Spencer Sheffield Yes 2016-PR-143
Campus Services Warehouse 0011-2016 Nic Palfrey No 2016-PR-144
Benn T Zinn Combustion Lab 052-2015 Greg Spiro No 2016-PR-145
Graduate Living Center Spencer Sheffield No 2016-PR-146
8th Street Apartments South Spencer Sheffield Yes 2016-PR-147
College of Computing 0196-2016 Elvia Lam No 2016-PR-148
Wardlaw Gas Line & Hood 0357-2016 Daniel Powell No 2016-PR-149
FY16 Classroom Improvements Fire Alarm Modification 0217 2016 No 2016-PR-150
FY16 Classroom Improvements Fire Alarm Modifications No 2016-PR-151
Smithgall - 2nd Floor EVP Student Affairs 0231-2016 Liz Punch Yes 2016-PR-152
West Campus Dining Commons 0268-2015 Kim Wilson No 2016-PR-153
Carnegie Generator 0580D-2016 Liz Punch Yes 2016-PR-154
Delta Tau GT Frat House Yes 2016-PR-156
West Campus Dining Commons 0268-2015 Kim Wilson No 2016-PR-157
Records Storage Upfit 0058-2016 Gary Petherick No 2016-PR-158
Records Storage Upfit 0058-2016 Gary Petherick No 2016-PR-159
370 Office Renovation 0253-2016 No 2016-PR-161
Health Services - Women's Center Fire Alarm System 0259-2016 Spencer Sheffield No 2016-PR-162
490 10th Street Demolition 0154-2016 Gerald Shumake No 2016-PR-163
North Ave Apartments East Building Data Room 110 0312-2016 Spencer Sheffield No 2016-PR-164
Bill Moore Student Success Center - 370 Office Renovation 0253-2016 Maria Ceballos No 2016-PR-165
Peters Parking Deck Egress Improvements 286-2015 No 2016-PR-166
Marcus Nanotechnology Standby Boiler Addition 0298-2016 No 2016-PR-167
Fire Alarm System Replacement 0204-2016 Brian Clarke No 2016-PR-168
FY16 Classrooms East Architecture-Fire Alarm Modifications 0226-2016 No 2016-PR-169
Renovate Lab 3-25 293-2013 Yes 2016-PR-170
Weber Auditoriums 1&2 Fire Alarm 0099-2016 No 2016-PR-171
Women's Center Renovation Fire Suppression 0259-2016 Spencer Sheffield No 2016-PR-172
Weber Building II/SST3 AE Maker Space 0199-2016 Bill Oswell No 2016-PR-173
DM Smith Fire Alarm Replacement 0066-2015 Brian Clarke Yes 2016-PR-174
College of Computing Data Room Fire Suppression 0091-2016 Brian Clarke No 2016-PR-175
Data Room Expansion 0091-2016 Brian Clarke No 2016-PR-176
Office of Legal Affairs Renovation 0288-2016 Maria Ceballos No 2016-PR-177
Ben T Zinn Combustion Lab Gas Service 0136-2012 Greg Spiro No 2016-PR-178
Pettit Lab 244 Renovation 0004-2017 No 2016-PR-179
College of Computing 0196-2016 Elvia Lam No 2016-PR-180
LPWE Administrative Building 0017-2015 Fenella Bryant No 2016-PR-182
HPEPL Arcjet 0360-2016 Greg Spiro No 2016-PR-183
Howey Physics L5 Corridor- Fire Alarm 0217-2016 No 2016-PR-184
West Campus Dining Commons Shop Drawings 0268-2015 Kim Wilson No 2016-PR-185
Centennial Research Building Suite 679 0360-2016 Carl Beasley No 2016-PR-186
Price Gilbert Library Fire Lane Marker 0069-2013 Jennifer Disotell No 2016-PR-187
Carnegie Renovation Fire Alarm Plans 105-2015 Liz Punch Yes 2016-PR-189
A. French Strategic Consulting Renovation 0328-2016 Maria Ceballos No 2016-PR-190
370 Office Renovation 253-2016 Maria Ceballos No 2016-PR-192